Wetterdaten: Dienstag, 31.05.2016
Datum Zeit Temp. Aussen Temp. o. S. +5cm Feuchte Auss BlattFeu 1 Luftdruck Regen Sonnenschein Regendauer Solar Windben Empfang
31.05.2016 00:00 16,3 C 16,1 C 14,4 C 96 % 15 lf 1002,4 hPa 0,0 l/m 0 min 0 min 0 W/m 14,6 km/h (3 Bft) 97,87 %
31.05.2016 00:02 16,3 C 16,1 C 14,4 C 96 % 15 lf 1002,4 hPa 0,0 l/m 0 min 0 min 0 W/m 6,3 km/h (2 Bft) 12,50 %
31.05.2016 00:06 16,3 C 15,6 C 14,4 C 97 % 15 lf 1002,5 hPa 0,0 l/m 0 min 0 min 0 W/m 16,7 km/h (3 Bft) 85,71 %
31.05.2016 00:08 16,3 C 15,6 C 14,4 C 97 % 15 lf 1002,5 hPa 0,0 l/m 0 min 0 min 0 W/m 10,5 km/h (2 Bft) 91,49 %
31.05.2016 00:10 16,2 C 15,6 C 14,4 C 97 % 15 lf 1002,5 hPa 0,0 l/m 0 min 0 min 0 W/m 12,6 km/h (3 Bft) 93,48 %
31.05.2016 00:12 16,2 C 15,6 C 14,4 C 97 % 15 lf 1002,5 hPa 0,0 l/m 0 min 0 min 0 W/m 14,6 km/h (3 Bft) 95,74 %
31.05.2016 00:14 16,2 C 15,6 C 14,4 C 97 % 15 lf 1002,6 hPa 0,0 l/m 0 min 0 min 0 W/m 12,6 km/h (3 Bft) 95,74 %
31.05.2016 00:16 16,2 C 15,6 C 14,4 C 97 % 15 lf 1002,7 hPa 0,0 l/m 0 min 0 min 0 W/m 10,5 km/h (2 Bft) 95,74 %
31.05.2016 00:18 16,2 C 15,6 C 14,4 C 97 % 15 lf 1002,7 hPa 0,0 l/m 0 min 0 min 0 W/m 14,6 km/h (3 Bft) 93,62 %
31.05.2016 00:20 16,2 C 15,6 C 14,4 C 97 % 15 lf 1002,7 hPa 0,0 l/m 0 min 0 min 0 W/m 12,6 km/h (3 Bft) 95,74 %
31.05.2016 00:22 16,2 C 15,6 C 14,4 C 97 % 15 lf 1002,8 hPa 0,0 l/m 0 min 0 min 0 W/m 14,6 km/h (3 Bft) 91,30 %
31.05.2016 00:24 16,2 C 15,6 C 14,4 C 97 % 15 lf 1002,7 hPa 0,2 l/m 0 min 0 min 0 W/m 14,6 km/h (3 Bft) 93,62 %
31.05.2016 00:26 16,2 C 15,6 C 14,4 C 97 % 15 lf 1002,7 hPa 0,0 l/m 0 min 0 min 0 W/m 10,5 km/h (2 Bft) 93,62 %
31.05.2016 00:28 16,1 C 15,6 C 14,4 C 97 % 15 lf 1002,8 hPa 0,0 l/m 0 min 0 min 0 W/m 12,6 km/h (3 Bft) 93,62 %
31.05.2016 00:30 16,1 C 15,6 C 14,4 C 97 % 15 lf 1002,8 hPa 0,0 l/m 0 min 0 min 0 W/m 16,7 km/h (3 Bft) 91,49 %
31.05.2016 00:32 16,1 C 15,6 C 14,4 C 97 % 15 lf 1002,8 hPa 0,0 l/m 0 min 0 min 0 W/m 12,6 km/h (3 Bft) 93,48 %
31.05.2016 00:34 16,1 C 15,6 C 14,4 C 97 % 15 lf 1002,9 hPa 0,0 l/m 0 min 0 min 0 W/m 14,6 km/h (3 Bft) 93,62 %
31.05.2016 00:36 16,1 C 15,6 C 14,4 C 97 % 15 lf 1002,8 hPa 0,0 l/m 0 min 0 min 0 W/m 12,6 km/h (3 Bft) 95,74 %
31.05.2016 00:38 16,1 C 15,6 C 14,4 C 97 % 15 lf 1002,9 hPa 0,0 l/m 0 min 0 min 0 W/m 14,6 km/h (3 Bft) 95,74 %
31.05.2016 00:40 16,1 C 15,6 C 14,4 C 97 % 15 lf 1002,9 hPa 0,0 l/m 0 min 0 min 0 W/m 16,7 km/h (3 Bft) 93,62 %
31.05.2016 00:42 16,1 C 15,6 C 14,4 C 97 % 15 lf 1002,9 hPa 0,0 l/m 0 min 0 min 0 W/m 14,6 km/h (3 Bft) 95,74 %
31.05.2016 00:44 16,1 C 15,6 C 14,4 C 97 % 15 lf 1002,9 hPa 0,0 l/m 0 min 0 min 0 W/m 12,6 km/h (3 Bft) 93,62 %
31.05.2016 00:46 16,1 C 15,6 C 14,4 C 97 % 15 lf 1003,0 hPa 0,0 l/m 0 min 0 min 0 W/m 10,5 km/h (2 Bft) 93,48 %
31.05.2016 00:48 16,1 C 15,6 C 14,4 C 97 % 15 lf 1003,0 hPa 0,0 l/m 0 min 0 min 0 W/m 6,3 km/h (2 Bft) 89,36 %
31.05.2016 00:50 16,1 C 15,6 C 14,4 C 97 % 15 lf 1003,0 hPa 0,0 l/m 0 min 0 min 0 W/m 10,5 km/h (2 Bft) 91,49 %
31.05.2016 00:52 16,1 C 15,6 C 14,4 C 97 % 15 lf 1003,1 hPa 0,0 l/m 0 min 0 min 0 W/m 16,7 km/h (3 Bft) 93,62 %
31.05.2016 00:54 16,1 C 15,6 C 14,4 C 97 % 15 lf 1003,1 hPa 0,0 l/m 0 min 0 min 0 W/m 8,4 km/h (2 Bft) 89,36 %
31.05.2016 00:56 16,1 C 15,6 C 14,4 C 97 % 15 lf 1003,1 hPa 0,0 l/m 0 min 0 min 0 W/m 8,4 km/h (2 Bft) 95,65 %
31.05.2016 00:58 16,1 C 15,6 C 14,4 C 97 % 15 lf 1003,1 hPa 0,0 l/m 0 min 0 min 0 W/m 10,5 km/h (2 Bft) 95,74 %
31.05.2016 01:00 16,1 C 15,6 C 14,4 C 97 % 15 lf 1003,2 hPa 0,0 l/m 0 min 0 min 0 W/m 14,6 km/h (3 Bft) 95,74 %
31.05.2016 01:02 16,0 C 15,6 C 14,4 C 97 % 15 lf 1003,2 hPa 0,0 l/m 0 min 0 min 0 W/m 20,9 km/h (4 Bft) 91,49 %
31.05.2016 01:04 16,0 C 15,6 C 14,4 C 97 % 15 lf 1003,2 hPa 0,0 l/m 0 min 0 min 0 W/m 18,8 km/h (3 Bft) 91,49 %
31.05.2016 01:06 16,0 C 15,6 C 13,9 C 97 % 15 lf 1003,2 hPa 0,0 l/m 0 min 0 min 0 W/m 16,7 km/h (3 Bft) 93,62 %
31.05.2016 01:08 16,0 C 16,1 C 13,9 C 97 % 15 lf 1003,1 hPa 0,0 l/m 0 min 0 min 0 W/m 16,7 km/h (3 Bft) 97,83 %
31.05.2016 01:10 15,9 C 15,6 C 13,9 C 97 % 15 lf 1003,2 hPa 0,0 l/m 0 min 0 min 0 W/m 18,8 km/h (3 Bft) 95,74 %
31.05.2016 01:12 15,9 C 15,6 C 13,9 C 97 % 15 lf 1003,3 hPa 0,0 l/m 0 min 0 min 0 W/m 18,8 km/h (3 Bft) 95,74 %
31.05.2016 01:14 15,9 C 16,1 C 13,9 C 97 % 15 lf 1003,1 hPa 0,0 l/m 0 min 0 min 0 W/m 14,6 km/h (3 Bft) 100,00 %
31.05.2016 01:16 15,9 C 16,1 C 13,9 C 97 % 15 lf 1003,2 hPa 0,0 l/m 0 min 0 min 0 W/m 14,6 km/h (3 Bft) 100,00 %
31.05.2016 01:18 15,9 C 16,1 C 13,9 C 97 % 15 lf 1003,1 hPa 0,0 l/m 0 min 0 min 0 W/m 10,5 km/h (2 Bft) 95,74 %
31.05.2016 01:20 15,9 C 16,1 C 13,9 C 97 % 15 lf 1003,3 hPa 0,0 l/m 0 min 0 min 0 W/m 14,6 km/h (3 Bft) 97,83 %
31.05.2016 01:22 15,9 C 16,1 C 13,9 C 97 % 15 lf 1003,2 hPa 0,0 l/m 0 min 0 min 0 W/m 12,6 km/h (3 Bft) 95,74 %
31.05.2016 01:24 15,9 C 16,1 C 13,9 C 97 % 15 lf 1003,2 hPa 0,0 l/m 0 min 0 min 0 W/m 14,6 km/h (3 Bft) 100,00 %
31.05.2016 01:26 15,9 C 16,1 C 13,9 C 97 % 15 lf 1003,2 hPa 0,0 l/m 0 min 0 min 0 W/m 20,9 km/h (4 Bft) 100,00 %
31.05.2016 01:28 15,8 C 16,1 C 13,9 C 97 % 15 lf 1003,2 hPa 0,0 l/m 0 min 0 min 0 W/m 14,6 km/h (3 Bft) 97,87 %
31.05.2016 01:30 15,8 C 16,1 C 13,9 C 97 % 15 lf 1003,3 hPa 0,0 l/m 0 min 0 min 0 W/m 18,8 km/h (3 Bft) 93,62 %
31.05.2016 01:32 15,8 C 16,1 C 13,9 C 97 % 15 lf 1003,3 hPa 0,0 l/m 0 min 0 min 0 W/m 10,5 km/h (2 Bft) 100,00 %
31.05.2016 01:34 15,8 C 16,1 C 13,9 C 97 % 15 lf 1003,3 hPa 0,0 l/m 0 min 0 min 0 W/m 14,6 km/h (3 Bft) 100,00 %
31.05.2016 01:36 15,8 C 16,1 C 13,9 C 97 % 15 lf 1003,3 hPa 0,0 l/m 0 min 0 min 0 W/m 10,5 km/h (2 Bft) 100,00 %
31.05.2016 01:38 15,8 C 16,1 C 13,9 C 97 % 15 lf 1003,3 hPa 0,0 l/m 0 min 0 min 0 W/m 14,6 km/h (3 Bft) 100,00 %
31.05.2016 01:40 15,8 C 16,1 C 13,9 C 97 % 15 lf 1003,3 hPa 0,0 l/m 0 min 0 min 0 W/m 10,5 km/h (2 Bft) 97,87 %
31.05.2016 01:42 15,8 C 16,1 C 13,9 C 97 % 15 lf 1003,4 hPa 0,0 l/m 0 min 0 min 0 W/m 10,5 km/h (2 Bft) 100,00 %
31.05.2016 01:44 15,8 C 16,1 C 13,9 C 97 % 15 lf 1003,4 hPa 0,0 l/m 0 min 0 min 0 W/m 14,6 km/h (3 Bft) 100,00 %
31.05.2016 01:46 15,8 C 16,1 C 13,9 C 97 % 15 lf 1003,4 hPa 0,0 l/m 0 min 0 min 0 W/m 16,7 km/h (3 Bft) 97,87 %
31.05.2016 01:48 15,8 C 16,1 C 14,4 C 97 % 15 lf 1003,4 hPa 0,0 l/m 0 min 0 min 0 W/m 25,1 km/h (4 Bft) 100,00 %
31.05.2016 01:50 15,8 C 16,1 C 14,4 C 97 % 15 lf 1003,4 hPa 0,0 l/m 0 min 0 min 0 W/m 20,9 km/h (4 Bft) 100,00 %
31.05.2016 01:52 15,8 C 16,1 C 14,4 C 96 % 15 lf 1003,4 hPa 0,0 l/m 0 min 0 min 0 W/m 23,0 km/h (4 Bft) 100,00 %
31.05.2016 01:54 15,7 C 16,1 C 14,4 C 96 % 15 lf 1003,3 hPa 0,0 l/m 0 min 0 min 0 W/m 27,2 km/h (4 Bft) 97,83 %
31.05.2016 01:56 15,7 C 16,1 C 14,4 C 96 % 15 lf 1003,3 hPa 0,0 l/m 0 min 0 min 0 W/m 25,1 km/h (4 Bft) 97,87 %
31.05.2016 01:58 15,7 C 16,1 C 14,4 C 96 % 15 lf 1003,4 hPa 0,0 l/m 0 min 0 min 0 W/m 18,8 km/h (3 Bft) 95,74 %
31.05.2016 02:00 15,7 C 16,1 C 14,4 C 96 % 15 lf 1003,4 hPa 0,0 l/m 0 min 0 min 0 W/m 18,8 km/h (3 Bft) 93,62 %
31.05.2016 02:02 15,7 C 16,1 C 14,4 C 96 % 15 lf 1003,4 hPa 0,0 l/m 0 min 0 min 0 W/m 16,7 km/h (3 Bft) 91,49 %
31.05.2016 02:04 15,7 C 16,1 C 14,4 C 96 % 15 lf 1003,4 hPa 0,0 l/m 0 min 0 min 0 W/m 23,0 km/h (4 Bft) 95,74 %
31.05.2016 02:06 15,6 C 16,1 C 14,4 C 95 % 15 lf 1003,3 hPa 0,0 l/m 0 min 0 min 0 W/m 20,9 km/h (4 Bft) 93,48 %
31.05.2016 02:08 15,6 C 16,1 C 14,4 C 96 % 15 lf 1003,3 hPa 0,0 l/m 0 min 0 min 0 W/m 20,9 km/h (4 Bft) 93,62 %
31.05.2016 02:10 15,6 C 16,1 C 14,4 C 95 % 15 lf 1003,3 hPa 0,0 l/m 0 min 0 min 0 W/m 20,9 km/h (4 Bft) 95,74 %
31.05.2016 02:12 15,6 C 16,1 C 14,4 C 95 % 14 lf 1003,4 hPa 0,0 l/m 0 min 0 min 0 W/m 20,9 km/h (4 Bft) 89,36 %
31.05.2016 02:14 15,6 C 15,6 C 14,4 C 95 % 14 lf 1003,4 hPa 0,0 l/m 0 min 0 min 0 W/m 16,7 km/h (3 Bft) 95,74 %
31.05.2016 02:16 15,6 C 16,1 C 14,4 C 95 % 13 lf 1003,4 hPa 0,0 l/m 0 min 0 min 0 W/m 18,8 km/h (3 Bft) 95,74 %
31.05.2016 02:18 15,6 C 16,1 C 14,4 C 95 % 13 lf 1003,4 hPa 0,0 l/m 0 min 0 min 0 W/m 18,8 km/h (3 Bft) 93,48 %
31.05.2016 02:20 15,7 C 16,1 C 14,4 C 95 % 12 lf 1003,4 hPa 0,0 l/m 0 min 0 min 0 W/m 23,0 km/h (4 Bft) 91,49 %
31.05.2016 02:22 15,7 C 15,6 C 14,4 C 95 % 12 lf 1003,4 hPa 0,0 l/m 0 min 0 min 0 W/m 27,2 km/h (4 Bft) 95,74 %
31.05.2016 02:24 15,7 C 16,1 C 14,4 C 95 % 11 lf 1003,4 hPa 0,0 l/m 0 min 0 min 0 W/m 18,8 km/h (3 Bft) 95,74 %
31.05.2016 02:26 15,7 C 15,6 C 14,4 C 95 % 10 lf 1003,4 hPa 0,0 l/m 0 min 0 min 0 W/m 14,6 km/h (3 Bft) 93,62 %
31.05.2016 02:28 15,7 C 16,1 C 14,4 C 95 % 9 lf 1003,4 hPa 0,0 l/m 0 min 0 min 0 W/m 20,9 km/h (4 Bft) 95,74 %
31.05.2016 02:30 15,7 C 16,1 C 14,4 C 95 % 8 lf 1003,4 hPa 0,0 l/m 0 min 0 min 0 W/m 16,7 km/h (3 Bft) 95,65 %
31.05.2016 02:32 15,7 C 16,1 C 14,4 C 94 % 5 lf 1003,5 hPa 0,0 l/m 0 min 0 min 0 W/m 14,6 km/h (3 Bft) 97,87 %
31.05.2016 02:34 15,7 C 16,1 C 14,4 C 94 % 4 lf 1003,4 hPa 0,0 l/m 0 min 0 min 0 W/m 16,7 km/h (3 Bft) 95,74 %
31.05.2016 02:36 15,7 C 16,1 C 14,4 C 94 % 4 lf 1003,5 hPa 0,0 l/m 0 min 0 min 0 W/m 14,6 km/h (3 Bft) 97,87 %
31.05.2016 02:38 15,7 C 16,1 C 14,4 C 94 % 3 lf 1003,5 hPa 0,0 l/m 0 min 0 min 0 W/m 16,7 km/h (3 Bft) 95,74 %
31.05.2016 02:40 15,7 C 16,1 C 14,4 C 94 % 3 lf 1003,5 hPa 0,0 l/m 0 min 0 min 0 W/m 23,0 km/h (4 Bft) 95,74 %
31.05.2016 02:42 15,8 C 16,1 C 14,4 C 94 % 2 lf 1003,5 hPa 0,0 l/m 0 min 0 min 0 W/m 20,9 km/h (4 Bft) 97,83 %
31.05.2016 02:44 15,8 C 16,1 C 14,4 C 94 % 2 lf 1003,5 hPa 0,0 l/m 0 min 0 min 0 W/m 18,8 km/h (3 Bft) 95,74 %
31.05.2016 02:46 15,8 C 16,1 C 14,4 C 94 % 1 lf 1003,5 hPa 0,0 l/m 0 min 0 min 0 W/m 20,9 km/h (4 Bft) 95,74 %
31.05.2016 02:48 15,8 C 16,1 C 14,4 C 94 % 1 lf 1003,5 hPa 0,0 l/m 0 min 0 min 0 W/m 23,0 km/h (4 Bft) 93,62 %
31.05.2016 02:50 15,8 C 16,1 C 14,4 C 94 % 1 lf 1003,4 hPa 0,0 l/m 0 min 0 min 0 W/m 18,8 km/h (3 Bft) 97,87 %
31.05.2016 02:52 15,8 C 16,1 C 14,4 C 94 % 0 lf 1003,4 hPa 0,0 l/m 0 min 0 min 0 W/m 18,8 km/h (3 Bft) 95,74 %
31.05.2016 02:54 15,8 C 16,1 C 14,4 C 94 % 0 lf 1003,5 hPa 0,0 l/m 0 min 0 min 0 W/m 14,6 km/h (3 Bft) 95,65 %
31.05.2016 02:56 15,8 C 16,1 C 14,4 C 94 % 0 lf 1003,5 hPa 0,0 l/m 0 min 0 min 0 W/m 16,7 km/h (3 Bft) 100,00 %
31.05.2016 02:58 15,8 C 15,6 C 14,4 C 94 % 0 lf 1003,4 hPa 0,0 l/m 0 min 0 min 0 W/m 18,8 km/h (3 Bft) 100,00 %
31.05.2016 03:00 15,8 C 16,1 C 14,4 C 94 % 0 lf 1003,4 hPa 0,0 l/m 0 min 0 min 0 W/m 14,6 km/h (3 Bft) 95,74 %
31.05.2016 03:02 15,8 C 16,1 C 14,4 C 94 % 0 lf 1003,4 hPa 0,0 l/m 0 min 0 min 0 W/m 20,9 km/h (4 Bft) 100,00 %
31.05.2016 03:04 15,8 C 16,1 C 14,4 C 94 % 0 lf 1003,4 hPa 0,0 l/m 0 min 0 min 0 W/m 14,6 km/h (3 Bft) 97,83 %
31.05.2016 03:06 15,8 C 16,1 C 14,4 C 94 % 0 lf 1003,5 hPa 0,0 l/m 0 min 0 min 0 W/m 20,9 km/h (4 Bft) 100,00 %
31.05.2016 03:08 15,8 C 16,1 C 14,4 C 94 % 0 lf 1003,5 hPa 0,0 l/m 0 min 0 min 0 W/m 16,7 km/h (3 Bft) 97,87 %
31.05.2016 03:10 15,8 C 16,1 C 14,4 C 94 % 0 lf 1003,4 hPa 0,0 l/m 0 min 0 min 0 W/m 18,8 km/h (3 Bft) 95,74 %
31.05.2016 03:12 15,8 C 16,1 C 14,4 C 94 % 0 lf 1003,5 hPa 0,0 l/m 0 min 0 min 0 W/m 23,0 km/h (4 Bft) 97,87 %
31.05.2016 03:14 15,8 C 16,1 C 14,4 C 94 % 0 lf 1003,5 hPa 0,0 l/m 0 min 0 min 0 W/m 23,0 km/h (4 Bft) 95,74 %
31.05.2016 03:16 15,8 C 16,1 C 14,4 C 94 % 0 lf 1003,5 hPa 0,0 l/m 0 min 0 min 0 W/m 23,0 km/h (4 Bft) 97,83 %
31.05.2016 03:18 15,8 C 16,1 C 14,4 C 94 % 0 lf 1003,4 hPa 0,0 l/m 0 min 0 min 0 W/m 18,8 km/h (3 Bft) 97,87 %
31.05.2016 03:20 15,8 C 16,1 C 14,4 C 94 % 0 lf 1003,5 hPa 0,0 l/m 0 min 0 min 0 W/m 18,8 km/h (3 Bft) 97,87 %
31.05.2016 03:22 15,8 C 16,1 C 14,4 C 94 % 0 lf 1003,5 hPa 0,0 l/m 0 min 0 min 0 W/m 20,9 km/h (4 Bft) 97,87 %
31.05.2016 03:24 15,8 C 16,1 C 14,4 C 94 % 0 lf 1003,5 hPa 0,0 l/m 0 min 0 min 0 W/m 20,9 km/h (4 Bft) 95,74 %
31.05.2016 03:26 15,7 C 16,1 C 14,4 C 94 % 0 lf 1003,5 hPa 0,0 l/m 0 min 0 min 0 W/m 18,8 km/h (3 Bft) 95,74 %
31.05.2016 03:28 15,7 C 16,1 C 14,4 C 94 % 0 lf 1003,5 hPa 0,0 l/m 0 min 0 min 0 W/m 23,0 km/h (4 Bft) 97,83 %
31.05.2016 03:30 15,7 C 16,1 C 14,4 C 94 % 0 lf 1003,5 hPa 0,0 l/m 0 min 0 min 0 W/m 18,8 km/h (3 Bft) 97,87 %
31.05.2016 03:32 15,7 C 16,1 C 14,4 C 93 % 0 lf 1003,5 hPa 0,0 l/m 0 min 0 min 0 W/m 18,8 km/h (3 Bft) 97,87 %
31.05.2016 03:34 15,7 C 16,1 C 14,4 C 93 % 0 lf 1003,5 hPa 0,0 l/m 0 min 0 min 0 W/m 18,8 km/h (3 Bft) 97,87 %
31.05.2016 03:36 15,7 C 16,1 C 14,4 C 93 % 0 lf 1003,5 hPa 0,0 l/m 0 min 0 min 0 W/m 16,7 km/h (3 Bft) 97,87 %
31.05.2016 03:38 15,7 C 16,1 C 14,4 C 93 % 0 lf 1003,5 hPa 0,0 l/m 0 min 0 min 0 W/m 18,8 km/h (3 Bft) 95,74 %
31.05.2016 03:40 15,7 C 16,1 C 14,4 C 93 % 0 lf 1003,5 hPa 0,0 l/m 0 min 0 min 0 W/m 18,8 km/h (3 Bft) 95,65 %
31.05.2016 03:42 15,7 C 16,1 C 14,4 C 93 % 0 lf 1003,6 hPa 0,0 l/m 0 min 0 min 0 W/m 18,8 km/h (3 Bft) 95,74 %
31.05.2016 03:44 15,7 C 16,1 C 14,4 C 93 % 0 lf 1003,5 hPa 0,0 l/m 0 min 0 min 0 W/m 20,9 km/h (4 Bft) 93,62 %
31.05.2016 03:46 15,7 C 16,1 C 14,4 C 93 % 0 lf 1003,6 hPa 0,0 l/m 0 min 0 min 0 W/m 27,2 km/h (4 Bft) 95,74 %
31.05.2016 03:48 15,7 C 16,1 C 14,4 C 93 % 0 lf 1003,6 hPa 0,0 l/m 0 min 0 min 0 W/m 31,4 km/h (5 Bft) 97,87 %
31.05.2016 03:50 15,7 C 16,1 C 14,4 C 93 % 0 lf 1003,6 hPa 0,0 l/m 0 min 0 min 0 W/m 20,9 km/h (4 Bft) 95,74 %
31.05.2016 03:52 15,7 C 16,1 C 14,4 C 93 % 0 lf 1003,6 hPa 0,0 l/m 0 min 0 min 0 W/m 23,0 km/h (4 Bft) 93,48 %
31.05.2016 03:54 15,7 C 16,1 C 14,4 C 93 % 0 lf 1003,6 hPa 0,0 l/m 0 min 0 min 0 W/m 18,8 km/h (3 Bft) 95,74 %
31.05.2016 03:56 15,7 C 16,1 C 14,4 C 93 % 0 lf 1003,7 hPa 0,0 l/m 0 min 0 min 0 W/m 25,1 km/h (4 Bft) 93,62 %
31.05.2016 03:58 15,7 C 16,1 C 14,4 C 93 % 0 lf 1003,7 hPa 0,0 l/m 0 min 0 min 0 W/m 23,0 km/h (4 Bft) 89,36 %
31.05.2016 04:00 15,7 C 15,6 C 14,4 C 93 % 0 lf 1003,7 hPa 0,0 l/m 0 min 0 min 0 W/m 18,8 km/h (3 Bft) 95,74 %
31.05.2016 04:05 15,7 C 15,6 C 14,4 C 92 % 0 lf 1003,7 hPa 0,0 l/m 0 min 0 min 0 W/m 20,9 km/h (4 Bft) 100,00 %
31.05.2016 04:06 15,7 C 15,6 C 14,4 C 92 % 0 lf 1003,7 hPa 0,0 l/m 0 min 0 min 0 W/m 20,9 km/h (4 Bft) 95,65 %
31.05.2016 04:08 15,7 C 15,6 C 14,4 C 92 % 0 lf 1003,7 hPa 0,0 l/m 0 min 0 min 0 W/m 16,7 km/h (3 Bft) 95,74 %
31.05.2016 04:10 15,7 C 15,6 C 14,4 C 92 % 0 lf 1003,7 hPa 0,0 l/m 0 min 0 min 0 W/m 23,0 km/h (4 Bft) 91,49 %
31.05.2016 04:12 15,7 C 15,6 C 14,4 C 92 % 0 lf 1003,8 hPa 0,0 l/m 0 min 0 min 0 W/m 20,9 km/h (4 Bft) 95,74 %
31.05.2016 04:14 15,6 C 15,6 C 14,4 C 92 % 0 lf 1003,8 hPa 0,0 l/m 0 min 0 min 0 W/m 29,3 km/h (5 Bft) 95,74 %
31.05.2016 04:16 15,6 C 15,6 C 14,4 C 92 % 0 lf 1003,8 hPa 0,0 l/m 0 min 0 min 0 W/m 23,0 km/h (4 Bft) 91,30 %
31.05.2016 04:18 15,6 C 15,6 C 14,4 C 92 % 0 lf 1003,7 hPa 0,0 l/m 0 min 0 min 0 W/m 20,9 km/h (4 Bft) 95,74 %
31.05.2016 04:20 15,7 C 15,6 C 14,4 C 92 % 0 lf 1003,8 hPa 0,0 l/m 0 min 0 min 0 W/m 23,0 km/h (4 Bft) 95,74 %
31.05.2016 04:22 15,6 C 15,6 C 14,4 C 92 % 0 lf 1003,8 hPa 0,0 l/m 0 min 0 min 0 W/m 20,9 km/h (4 Bft) 95,74 %
31.05.2016 04:24 15,6 C 15,6 C 14,4 C 92 % 0 lf 1003,9 hPa 0,0 l/m 0 min 0 min 0 W/m 23,0 km/h (4 Bft) 100,00 %
31.05.2016 04:26 15,6 C 15,6 C 14,4 C 92 % 0 lf 1003,9 hPa 0,0 l/m 0 min 0 min 0 W/m 23,0 km/h (4 Bft) 93,62 %
31.05.2016 04:28 15,6 C 15,6 C 14,4 C 92 % 0 lf 1003,9 hPa 0,0 l/m 0 min 0 min 0 W/m 18,8 km/h (3 Bft) 93,48 %
31.05.2016 04:30 15,6 C 15,6 C 14,4 C 92 % 0 lf 1003,8 hPa 0,0 l/m 0 min 0 min 0 W/m 14,6 km/h (3 Bft) 93,62 %
31.05.2016 04:32 15,6 C 15,6 C 14,4 C 92 % 0 lf 1003,9 hPa 0,0 l/m 0 min 0 min 0 W/m 23,0 km/h (4 Bft) 95,74 %
31.05.2016 04:34 15,6 C 15,6 C 14,4 C 92 % 0 lf 1003,9 hPa 0,0 l/m 0 min 0 min 0 W/m 25,1 km/h (4 Bft) 97,87 %
31.05.2016 04:36 15,6 C 15,6 C 14,4 C 92 % 0 lf 1004,0 hPa 0,0 l/m 0 min 0 min 0 W/m 20,9 km/h (4 Bft) 97,87 %
31.05.2016 04:38 15,6 C 15,6 C 14,4 C 91 % 0 lf 1004,0 hPa 0,0 l/m 0 min 0 min 0 W/m 18,8 km/h (3 Bft) 95,65 %
31.05.2016 04:40 15,6 C 15,6 C 14,4 C 91 % 0 lf 1004,0 hPa 0,0 l/m 0 min 0 min 0 W/m 27,2 km/h (4 Bft) 97,87 %
31.05.2016 04:42 15,6 C 15,6 C 14,4 C 91 % 0 lf 1004,0 hPa 0,0 l/m 0 min 0 min 0 W/m 20,9 km/h (4 Bft) 95,74 %
31.05.2016 04:44 15,6 C 15,6 C 14,4 C 91 % 0 lf 1003,9 hPa 0,0 l/m 0 min 0 min 0 W/m 25,1 km/h (4 Bft) 97,87 %
31.05.2016 04:46 15,6 C 15,6 C 14,4 C 91 % 0 lf 1004,0 hPa 0,0 l/m 0 min 0 min 0 W/m 25,1 km/h (4 Bft) 95,74 %
31.05.2016 04:48 15,6 C 15,6 C 14,4 C 91 % 0 lf 1004,0 hPa 0,0 l/m 0 min 0 min 0 W/m 20,9 km/h (4 Bft) 97,87 %
31.05.2016 04:50 15,6 C 15,6 C 14,4 C 91 % 0 lf 1004,0 hPa 0,0 l/m 0 min 0 min 0 W/m 25,1 km/h (4 Bft) 97,83 %
31.05.2016 04:52 15,6 C 15,6 C 14,4 C 91 % 0 lf 1004,1 hPa 0,0 l/m 0 min 0 min 0 W/m 23,0 km/h (4 Bft) 97,87 %
31.05.2016 04:54 15,6 C 15,6 C 14,4 C 91 % 0 lf 1004,1 hPa 0,0 l/m 0 min 0 min 0 W/m 23,0 km/h (4 Bft) 100,00 %
31.05.2016 04:56 15,6 C 15,6 C 14,4 C 91 % 0 lf 1004,1 hPa 0,0 l/m 0 min 0 min 0 W/m 27,2 km/h (4 Bft) 97,87 %
31.05.2016 04:58 15,6 C 15,6 C 14,4 C 91 % 0 lf 1004,2 hPa 0,0 l/m 0 min 0 min 0 W/m 25,1 km/h (4 Bft) 95,74 %
31.05.2016 05:00 15,6 C 15,6 C 14,4 C 91 % 0 lf 1004,2 hPa 0,0 l/m 0 min 0 min 0 W/m 27,2 km/h (4 Bft) 97,87 %
31.05.2016 05:02 15,6 C 15,6 C 14,4 C 91 % 0 lf 1004,2 hPa 0,0 l/m 0 min 0 min 0 W/m 31,4 km/h (5 Bft) 91,30 %
31.05.2016 05:04 15,6 C 15,6 C 14,4 C 91 % 0 lf 1004,2 hPa 0,0 l/m 0 min 0 min 0 W/m 25,1 km/h (4 Bft) 97,87 %
31.05.2016 05:06 15,6 C 15,6 C 14,4 C 91 % 0 lf 1004,2 hPa 0,0 l/m 0 min 0 min 0 W/m 20,9 km/h (4 Bft) 95,74 %
31.05.2016 05:08 15,6 C 15,6 C 14,4 C 91 % 0 lf 1004,2 hPa 0,0 l/m 0 min 0 min 0 W/m 18,8 km/h (3 Bft) 97,87 %
31.05.2016 05:10 15,6 C 15,6 C 14,4 C 91 % 0 lf 1004,2 hPa 0,0 l/m 0 min 0 min 0 W/m 14,6 km/h (3 Bft) 95,74 %
31.05.2016 05:12 15,6 C 15,6 C 14,4 C 91 % 0 lf 1004,3 hPa 0,0 l/m 0 min 0 min 0 W/m 16,7 km/h (3 Bft) 97,87 %
31.05.2016 05:14 15,6 C 15,6 C 14,4 C 91 % 0 lf 1004,3 hPa 0,0 l/m 0 min 0 min 0 W/m 23,0 km/h (4 Bft) 97,83 %
31.05.2016 05:16 15,6 C 15,6 C 14,4 C 91 % 0 lf 1004,4 hPa 0,0 l/m 0 min 0 min 0 W/m 18,8 km/h (3 Bft) 95,74 %
31.05.2016 05:18 15,6 C 15,6 C 14,4 C 91 % 0 lf 1004,4 hPa 0,0 l/m 0 min 0 min 0 W/m 16,7 km/h (3 Bft) 93,62 %
31.05.2016 05:20 15,6 C 15,6 C 14,4 C 91 % 0 lf 1004,4 hPa 0,0 l/m 0 min 0 min 0 W/m 25,1 km/h (4 Bft) 93,62 %
31.05.2016 05:22 15,6 C 15,6 C 14,4 C 90 % 0 lf 1004,4 hPa 0,0 l/m 0 min 0 min 0 W/m 27,2 km/h (4 Bft) 97,87 %
31.05.2016 05:24 15,5 C 15,6 C 14,4 C 90 % 0 lf 1004,4 hPa 0,0 l/m 0 min 0 min 5 W/m 18,8 km/h (3 Bft) 97,87 %
31.05.2016 05:26 15,5 C 15,6 C 14,4 C 90 % 0 lf 1004,5 hPa 0,0 l/m 0 min 0 min 5 W/m 23,0 km/h (4 Bft) 95,65 %
31.05.2016 05:28 15,5 C 15,6 C 14,4 C 90 % 0 lf 1004,4 hPa 0,0 l/m 0 min 0 min 5 W/m 27,2 km/h (4 Bft) 95,74 %
31.05.2016 05:30 15,5 C 15,6 C 13,9 C 90 % 0 lf 1004,4 hPa 0,0 l/m 0 min 0 min 5 W/m 23,0 km/h (4 Bft) 97,87 %
31.05.2016 05:32 15,5 C 15,6 C 14,4 C 90 % 0 lf 1004,5 hPa 0,0 l/m 0 min 0 min 6 W/m 18,8 km/h (3 Bft) 97,87 %
31.05.2016 05:34 15,5 C 15,6 C 13,9 C 90 % 0 lf 1004,5 hPa 0,0 l/m 0 min 0 min 7 W/m 18,8 km/h (3 Bft) 95,74 %
31.05.2016 05:36 15,5 C 15,6 C 13,9 C 90 % 0 lf 1004,5 hPa 0,0 l/m 0 min 0 min 7 W/m 10,5 km/h (2 Bft) 97,83 %
31.05.2016 05:38 15,5 C 15,6 C 13,9 C 90 % 0 lf 1004,6 hPa 0,0 l/m 0 min 0 min 8 W/m 12,6 km/h (3 Bft) 95,74 %
31.05.2016 05:40 15,5 C 15,6 C 13,9 C 90 % 0 lf 1004,6 hPa 0,0 l/m 0 min 0 min 9 W/m 18,8 km/h (3 Bft) 95,74 %
31.05.2016 05:42 15,4 C 15,6 C 14,4 C 90 % 0 lf 1004,5 hPa 0,0 l/m 0 min 0 min 10 W/m 23,0 km/h (4 Bft) 95,74 %
31.05.2016 05:44 15,4 C 15,6 C 14,4 C 90 % 0 lf 1004,6 hPa 0,0 l/m 0 min 0 min 11 W/m 18,8 km/h (3 Bft) 97,87 %
31.05.2016 05:46 15,4 C 15,6 C 13,9 C 90 % 0 lf 1004,5 hPa 0,0 l/m 0 min 0 min 11 W/m 16,7 km/h (3 Bft) 93,62 %
31.05.2016 05:48 15,4 C 15,6 C 14,4 C 90 % 0 lf 1004,6 hPa 0,0 l/m 0 min 0 min 14 W/m 29,3 km/h (5 Bft) 97,83 %
31.05.2016 05:50 15,4 C 15,6 C 14,4 C 90 % 0 lf 1004,6 hPa 0,0 l/m 0 min 0 min 14 W/m 25,1 km/h (4 Bft) 89,36 %
31.05.2016 05:52 15,4 C 15,6 C 14,4 C 90 % 0 lf 1004,6 hPa 0,0 l/m 0 min 0 min 12 W/m 18,8 km/h (3 Bft) 95,74 %
31.05.2016 05:54 15,4 C 15,6 C 14,4 C 90 % 0 lf 1004,7 hPa 0,0 l/m 0 min 0 min 13 W/m 27,2 km/h (4 Bft) 97,87 %
31.05.2016 05:56 15,4 C 15,6 C 14,4 C 90 % 0 lf 1004,7 hPa 0,0 l/m 0 min 0 min 14 W/m 20,9 km/h (4 Bft) 95,74 %
31.05.2016 05:58 15,4 C 15,6 C 14,4 C 90 % 0 lf 1004,6 hPa 0,0 l/m 0 min 0 min 16 W/m 14,6 km/h (3 Bft) 95,74 %
31.05.2016 06:00 15,4 C 15,6 C 14,4 C 90 % 0 lf 1004,6 hPa 0,0 l/m 0 min 0 min 18 W/m 18,8 km/h (3 Bft) 95,65 %
31.05.2016 06:02 15,4 C 15,6 C 14,4 C 90 % 0 lf 1004,7 hPa 0,0 l/m 0 min 0 min 19 W/m 25,1 km/h (4 Bft) 95,74 %
31.05.2016 06:04 15,4 C 15,6 C 14,4 C 90 % 0 lf 1004,7 hPa 0,0 l/m 0 min 0 min 21 W/m 23,0 km/h (4 Bft) 93,62 %
31.05.2016 06:06 15,4 C 15,6 C 14,4 C 90 % 0 lf 1004,6 hPa 0,0 l/m 0 min 0 min 22 W/m 20,9 km/h (4 Bft) 93,62 %
31.05.2016 06:08 15,4 C 15,6 C 14,4 C 90 % 0 lf 1004,7 hPa 0,0 l/m 0 min 0 min 24 W/m 18,8 km/h (3 Bft) 95,74 %
31.05.2016 06:10 15,4 C 15,6 C 14,4 C 89 % 0 lf 1004,6 hPa 0,0 l/m 0 min 0 min 25 W/m 25,1 km/h (4 Bft) 91,49 %
31.05.2016 06:12 15,4 C 15,6 C 14,4 C 89 % 0 lf 1004,7 hPa 0,0 l/m 0 min 0 min 25 W/m 18,8 km/h (3 Bft) 95,65 %
31.05.2016 06:14 15,4 C 15,6 C 14,4 C 89 % 0 lf 1004,7 hPa 0,0 l/m 0 min 0 min 24 W/m 16,7 km/h (3 Bft) 95,74 %
31.05.2016 06:16 15,4 C 15,6 C 14,4 C 89 % 0 lf 1004,8 hPa 0,0 l/m 0 min 0 min 24 W/m 18,8 km/h (3 Bft) 93,62 %
31.05.2016 06:18 15,4 C 15,6 C 14,4 C 89 % 0 lf 1004,8 hPa 0,0 l/m 0 min 0 min 25 W/m 23,0 km/h (4 Bft) 95,74 %
31.05.2016 06:20 15,4 C 15,6 C 14,4 C 89 % 0 lf 1004,8 hPa 0,0 l/m 0 min 0 min 27 W/m 23,0 km/h (4 Bft) 97,87 %
31.05.2016 06:22 15,4 C 15,6 C 14,4 C 89 % 0 lf 1004,7 hPa 0,0 l/m 0 min 0 min 28 W/m 18,8 km/h (3 Bft) 97,87 %
31.05.2016 06:24 15,5 C 15,6 C 14,4 C 89 % 0 lf 1004,8 hPa 0,0 l/m 0 min 0 min 29 W/m 20,9 km/h (4 Bft) 97,83 %
31.05.2016 06:26 15,5 C 15,6 C 14,4 C 89 % 0 lf 1004,8 hPa 0,0 l/m 0 min 0 min 28 W/m 23,0 km/h (4 Bft) 95,74 %
31.05.2016 06:28 15,5 C 15,6 C 14,4 C 89 % 0 lf 1004,9 hPa 0,0 l/m 0 min 0 min 28 W/m 18,8 km/h (3 Bft) 95,74 %
31.05.2016 06:30 15,5 C 15,6 C 14,4 C 89 % 0 lf 1004,9 hPa 0,0 l/m 0 min 0 min 29 W/m 16,7 km/h (3 Bft) 97,87 %
31.05.2016 06:32 15,5 C 15,6 C 14,4 C 89 % 0 lf 1004,9 hPa 0,0 l/m 0 min 0 min 29 W/m 31,4 km/h (5 Bft) 93,62 %
31.05.2016 06:34 15,5 C 15,6 C 14,4 C 89 % 0 lf 1004,9 hPa 0,0 l/m 0 min 0 min 31 W/m 27,2 km/h (4 Bft) 95,74 %
31.05.2016 06:36 15,5 C 16,1 C 14,4 C 89 % 0 lf 1004,9 hPa 0,0 l/m 0 min 0 min 38 W/m 27,2 km/h (4 Bft) 97,83 %
31.05.2016 06:38 15,6 C 16,1 C 14,4 C 89 % 0 lf 1004,9 hPa 0,0 l/m 0 min 0 min 47 W/m 20,9 km/h (4 Bft) 97,87 %
31.05.2016 06:40 15,6 C 16,1 C 14,4 C 89 % 0 lf 1004,9 hPa 0,0 l/m 0 min 0 min 55 W/m 18,8 km/h (3 Bft) 97,87 %
31.05.2016 06:42 15,6 C 16,1 C 14,4 C 89 % 0 lf 1004,9 hPa 0,0 l/m 0 min 0 min 62 W/m 25,1 km/h (4 Bft) 93,62 %
31.05.2016 06:44 15,6 C 16,1 C 15,0 C 89 % 0 lf 1005,0 hPa 0,0 l/m 0 min 0 min 74 W/m 29,3 km/h (5 Bft) 93,62 %
31.05.2016 06:46 15,6 C 16,1 C 15,0 C 88 % 0 lf 1005,1 hPa 0,0 l/m 0 min 0 min 73 W/m 23,0 km/h (4 Bft) 97,83 %
31.05.2016 06:48 15,6 C 16,1 C 15,0 C 88 % 0 lf 1005,0 hPa 0,0 l/m 0 min 0 min 72 W/m 23,0 km/h (4 Bft) 97,87 %
31.05.2016 06:50 15,6 C 16,1 C 15,0 C 88 % 0 lf 1005,0 hPa 0,0 l/m 0 min 0 min 68 W/m 14,6 km/h (3 Bft) 97,87 %
31.05.2016 06:52 15,6 C 16,1 C 15,0 C 88 % 0 lf 1005,0 hPa 0,0 l/m 0 min 0 min 67 W/m 20,9 km/h (4 Bft) 97,87 %
31.05.2016 06:54 15,6 C 16,1 C 15,0 C 88 % 0 lf 1005,0 hPa 0,0 l/m 0 min 0 min 71 W/m 18,8 km/h (3 Bft) 100,00 %
31.05.2016 06:56 15,6 C 16,1 C 15,0 C 88 % 0 lf 1005,0 hPa 0,0 l/m 0 min 0 min 81 W/m 20,9 km/h (4 Bft) 97,87 %
31.05.2016 06:58 15,7 C 16,1 C 15,0 C 88 % 0 lf 1005,1 hPa 0,0 l/m 0 min 0 min 91 W/m 23,0 km/h (4 Bft) 97,83 %
31.05.2016 07:00 15,7 C 16,1 C 15,0 C 88 % 0 lf 1005,0 hPa 0,0 l/m 2 min 0 min 104 W/m 20,9 km/h (4 Bft) 95,74 %
31.05.2016 07:02 15,7 C 16,7 C 15,0 C 88 % 0 lf 1005,1 hPa 0,0 l/m 2 min 0 min 116 W/m 18,8 km/h (3 Bft) 93,62 %
31.05.2016 07:04 15,7 C 16,1 C 15,0 C 88 % 0 lf 1005,1 hPa 0,0 l/m 2 min 0 min 117 W/m 29,3 km/h (5 Bft) 100,00 %
31.05.2016 07:06 15,7 C 16,7 C 15,0 C 88 % 0 lf 1005,1 hPa 0,0 l/m 2 min 0 min 121 W/m 20,9 km/h (4 Bft) 97,87 %
31.05.2016 07:08 15,7 C 16,7 C 15,0 C 88 % 0 lf 1005,1 hPa 0,0 l/m 2 min 0 min 185 W/m 23,0 km/h (4 Bft) 97,87 %
31.05.2016 07:10 15,7 C 16,7 C 15,0 C 88 % 0 lf 1005,1 hPa 0,0 l/m 2 min 0 min 261 W/m 23,0 km/h (4 Bft) 100,00 %
31.05.2016 07:12 15,7 C 16,7 C 15,0 C 88 % 0 lf 1005,1 hPa 0,0 l/m 2 min 0 min 251 W/m 20,9 km/h (4 Bft) 97,87 %
31.05.2016 07:14 15,8 C 16,7 C 14,4 C 88 % 0 lf 1005,1 hPa 0,0 l/m 2 min 0 min 260 W/m 23,0 km/h (4 Bft) 100,00 %
31.05.2016 07:16 15,8 C 16,7 C 15,0 C 88 % 0 lf 1005,1 hPa 0,0 l/m 2 min 0 min 258 W/m 18,8 km/h (3 Bft) 100,00 %
31.05.2016 07:18 15,8 C 16,7 C 15,0 C 88 % 0 lf 1005,1 hPa 0,0 l/m 2 min 0 min 272 W/m 14,6 km/h (3 Bft) 95,74 %
31.05.2016 07:20 15,8 C 16,7 C 15,0 C 88 % 0 lf 1005,1 hPa 0,0 l/m 2 min 0 min 262 W/m 16,7 km/h (3 Bft) 97,87 %
31.05.2016 07:22 15,8 C 16,7 C 15,0 C 88 % 0 lf 1005,2 hPa 0,0 l/m 2 min 0 min 189 W/m 18,8 km/h (3 Bft) 100,00 %
31.05.2016 07:24 15,8 C 16,7 C 15,0 C 88 % 0 lf 1005,1 hPa 0,0 l/m 0 min 0 min 120 W/m 25,1 km/h (4 Bft) 100,00 %
31.05.2016 07:26 15,8 C 16,7 C 15,0 C 88 % 0 lf 1005,2 hPa 0,0 l/m 0 min 0 min 119 W/m 25,1 km/h (4 Bft) 95,74 %
31.05.2016 07:28 15,9 C 16,7 C 15,0 C 88 % 0 lf 1005,2 hPa 0,0 l/m 0 min 0 min 126 W/m 20,9 km/h (4 Bft) 100,00 %
31.05.2016 07:30 15,9 C 16,7 C 15,6 C 88 % 0 lf 1005,2 hPa 0,0 l/m 0 min 0 min 130 W/m 18,8 km/h (3 Bft) 100,00 %
31.05.2016 07:32 15,9 C 16,7 C 15,6 C 88 % 0 lf 1005,2 hPa 0,0 l/m 2 min 0 min 161 W/m 18,8 km/h (3 Bft) 100,00 %
31.05.2016 07:34 15,9 C 16,7 C 15,6 C 88 % 0 lf 1005,3 hPa 0,0 l/m 2 min 0 min 244 W/m 25,1 km/h (4 Bft) 100,00 %
31.05.2016 07:36 15,9 C 16,7 C 15,6 C 88 % 0 lf 1005,4 hPa 0,0 l/m 2 min 0 min 363 W/m 23,0 km/h (4 Bft) 97,87 %
31.05.2016 07:38 16,0 C 16,7 C 15,0 C 88 % 0 lf 1005,3 hPa 0,0 l/m 2 min 0 min 341 W/m 18,8 km/h (3 Bft) 91,49 %
31.05.2016 07:40 16,0 C 16,7 C 15,0 C 88 % 0 lf 1005,3 hPa 0,0 l/m 2 min 0 min 323 W/m 33,5 km/h (5 Bft) 95,74 %
31.05.2016 07:42 16,0 C 16,7 C 15,0 C 87 % 0 lf 1005,3 hPa 0,0 l/m 2 min 0 min 317 W/m 20,9 km/h (4 Bft) 97,87 %
31.05.2016 07:44 16,0 C 16,7 C 15,0 C 87 % 0 lf 1005,3 hPa 0,0 l/m 2 min 0 min 317 W/m 20,9 km/h (4 Bft) 93,62 %
31.05.2016 07:46 16,1 C 16,7 C 15,0 C 87 % 0 lf 1005,3 hPa 0,0 l/m 2 min 0 min 320 W/m 23,0 km/h (4 Bft) 95,65 %
31.05.2016 07:48 16,1 C 16,7 C 15,0 C 87 % 0 lf 1005,4 hPa 0,0 l/m 2 min 0 min 322 W/m 23,0 km/h (4 Bft) 95,74 %
31.05.2016 07:50 16,1 C 16,7 C 15,0 C 87 % 0 lf 1005,4 hPa 0,0 l/m 2 min 0 min 326 W/m 29,3 km/h (5 Bft) 93,62 %
31.05.2016 07:52 16,1 C 16,7 C 15,0 C 87 % 0 lf 1005,5 hPa 0,0 l/m 2 min 0 min 330 W/m 20,9 km/h (4 Bft) 93,62 %
31.05.2016 07:54 16,1 C 16,7 C 15,0 C 87 % 0 lf 1005,4 hPa 0,0 l/m 2 min 0 min 335 W/m 18,8 km/h (3 Bft) 91,49 %
31.05.2016 07:56 16,1 C 16,7 C 15,0 C 87 % 0 lf 1005,4 hPa 0,0 l/m 2 min 0 min 341 W/m 29,3 km/h (5 Bft) 91,49 %
31.05.2016 07:58 16,1 C 16,7 C 15,0 C 87 % 0 lf 1005,4 hPa 0,0 l/m 2 min 0 min 346 W/m 23,0 km/h (4 Bft) 95,65 %
31.05.2016 08:00 16,2 C 16,7 C 15,0 C 87 % 0 lf 1005,4 hPa 0,0 l/m 2 min 0 min 352 W/m 23,0 km/h (4 Bft) 89,36 %
31.05.2016 08:02 16,2 C 16,7 C 15,0 C 87 % 0 lf 1005,4 hPa 0,0 l/m 2 min 0 min 357 W/m 31,4 km/h (5 Bft) 91,49 %
31.05.2016 08:04 16,2 C 16,7 C 15,0 C 87 % 0 lf 1005,5 hPa 0,0 l/m 2 min 0 min 364 W/m 31,4 km/h (5 Bft) 93,62 %
31.05.2016 08:06 16,2 C 16,7 C 15,0 C 87 % 0 lf 1005,5 hPa 0,0 l/m 2 min 0 min 369 W/m 27,2 km/h (4 Bft) 91,49 %
31.05.2016 08:08 16,2 C 16,7 C 15,0 C 87 % 0 lf 1005,6 hPa 0,0 l/m 2 min 0 min 374 W/m 31,4 km/h (5 Bft) 91,30 %
31.05.2016 08:10 16,2 C 16,7 C 15,0 C 87 % 0 lf 1005,6 hPa 0,0 l/m 2 min 0 min 378 W/m 29,3 km/h (5 Bft) 91,49 %
31.05.2016 08:12 16,2 C 16,7 C 15,0 C 87 % 0 lf 1005,6 hPa 0,0 l/m 2 min 0 min 385 W/m 29,3 km/h (5 Bft) 93,62 %
31.05.2016 08:14 16,3 C 16,7 C 15,0 C 87 % 0 lf 1005,7 hPa 0,0 l/m 2 min 0 min 392 W/m 20,9 km/h (4 Bft) 91,49 %
31.05.2016 08:16 16,3 C 16,7 C 15,0 C 87 % 0 lf 1005,7 hPa 0,0 l/m 2 min 0 min 396 W/m 31,4 km/h (5 Bft) 93,62 %
31.05.2016 08:18 16,3 C 17,2 C 15,0 C 87 % 0 lf 1005,7 hPa 0,0 l/m 2 min 0 min 401 W/m 37,7 km/h (5 Bft) 95,74 %
31.05.2016 08:20 16,3 C 16,7 C 15,0 C 87 % 0 lf 1005,7 hPa 0,0 l/m 2 min 0 min 408 W/m 35,6 km/h (5 Bft) 95,65 %
31.05.2016 08:22 16,4 C 17,2 C 15,0 C 86 % 0 lf 1005,8 hPa 0,0 l/m 2 min 0 min 413 W/m 27,2 km/h (4 Bft) 91,49 %
31.05.2016 08:24 16,4 C 17,2 C 15,0 C 86 % 0 lf 1005,8 hPa 0,0 l/m 2 min 0 min 418 W/m 29,3 km/h (5 Bft) 95,74 %
31.05.2016 08:26 16,4 C 17,8 C 15,0 C 86 % 0 lf 1005,8 hPa 0,0 l/m 2 min 0 min 423 W/m 33,5 km/h (5 Bft) 93,62 %
31.05.2016 08:28 16,4 C 20,6 C 15,0 C 86 % 0 lf 1005,8 hPa 0,0 l/m 2 min 0 min 431 W/m 33,5 km/h (5 Bft) 95,65 %
31.05.2016 08:30 16,5 C 20,6 C 15,6 C 86 % 0 lf 1005,9 hPa 0,0 l/m 2 min 0 min 436 W/m 27,2 km/h (4 Bft) 93,62 %
31.05.2016 08:32 16,6 C 20,6 C 15,6 C 85 % 0 lf 1005,9 hPa 0,0 l/m 2 min 0 min 441 W/m 33,5 km/h (5 Bft) 95,65 %
31.05.2016 08:34 16,7 C 21,1 C 15,6 C 85 % 0 lf 1006,0 hPa 0,0 l/m 2 min 0 min 447 W/m 25,1 km/h (4 Bft) 93,62 %
31.05.2016 08:36 16,7 C 22,8 C 15,6 C 86 % 0 lf 1006,0 hPa 0,0 l/m 2 min 0 min 458 W/m 25,1 km/h (4 Bft) 93,62 %
31.05.2016 08:38 16,8 C 22,2 C 15,6 C 85 % 0 lf 1006,0 hPa 0,0 l/m 2 min 0 min 463 W/m 29,3 km/h (5 Bft) 95,74 %
31.05.2016 08:40 16,9 C 21,7 C 15,6 C 85 % 0 lf 1006,0 hPa 0,0 l/m 2 min 0 min 474 W/m 27,2 km/h (4 Bft) 97,87 %
31.05.2016 08:42 16,9 C 21,1 C 15,6 C 85 % 0 lf 1006,1 hPa 0,0 l/m 2 min 0 min 498 W/m 29,3 km/h (5 Bft) 95,74 %
31.05.2016 08:44 17,0 C 20,6 C 15,6 C 84 % 0 lf 1006,1 hPa 0,0 l/m 2 min 0 min 550 W/m 29,3 km/h (5 Bft) 93,48 %
31.05.2016 08:46 17,1 C 20,0 C 16,1 C 84 % 0 lf 1006,2 hPa 0,0 l/m 2 min 0 min 554 W/m 31,4 km/h (5 Bft) 91,49 %
31.05.2016 08:48 17,1 C 19,4 C 16,1 C 83 % 0 lf 1006,2 hPa 0,0 l/m 2 min 0 min 470 W/m 27,2 km/h (4 Bft) 95,74 %
31.05.2016 08:50 17,2 C 20,6 C 16,7 C 84 % 0 lf 1006,3 hPa 0,0 l/m 2 min 0 min 309 W/m 25,1 km/h (4 Bft) 97,87 %
31.05.2016 08:52 17,2 C 19,4 C 16,7 C 84 % 0 lf 1006,4 hPa 0,0 l/m 2 min 0 min 287 W/m 25,1 km/h (4 Bft) 97,87 %
31.05.2016 08:54 17,3 C 19,4 C 16,7 C 84 % 0 lf 1006,4 hPa 0,0 l/m 2 min 0 min 263 W/m 27,2 km/h (4 Bft) 97,87 %
31.05.2016 08:56 17,3 C 19,4 C 16,7 C 84 % 0 lf 1006,4 hPa 0,0 l/m 2 min 0 min 293 W/m 23,0 km/h (4 Bft) 100,00 %
31.05.2016 08:58 17,3 C 19,4 C 16,7 C 83 % 0 lf 1006,4 hPa 0,0 l/m 2 min 0 min 461 W/m 29,3 km/h (5 Bft) 100,00 %
31.05.2016 09:00 17,4 C 21,1 C 17,2 C 83 % 0 lf 1006,5 hPa 0,0 l/m 2 min 0 min 276 W/m 27,2 km/h (4 Bft) 91,49 %
31.05.2016 09:02 17,4 C 22,2 C 17,2 C 83 % 0 lf 1006,6 hPa 0,0 l/m 2 min 0 min 673 W/m 29,3 km/h (5 Bft) 97,87 %
31.05.2016 09:04 17,6 C 21,7 C 17,8 C 83 % 0 lf 1006,6 hPa 0,0 l/m 2 min 0 min 504 W/m 20,9 km/h (4 Bft) 97,87 %
31.05.2016 09:06 17,7 C 22,2 C 17,8 C 83 % 0 lf 1006,6 hPa 0,0 l/m 2 min 0 min 481 W/m 31,4 km/h (5 Bft) 95,74 %
31.05.2016 09:08 17,7 C 20,6 C 17,2 C 83 % 0 lf 1006,6 hPa 0,0 l/m 2 min 0 min 304 W/m 33,5 km/h (5 Bft) 97,83 %
31.05.2016 09:10 17,7 C 20,0 C 17,2 C 82 % 0 lf 1006,6 hPa 0,0 l/m 0 min 0 min 208 W/m 29,3 km/h (5 Bft) 97,87 %
31.05.2016 09:12 17,8 C 21,1 C 17,2 C 82 % 0 lf 1006,6 hPa 0,0 l/m 0 min 0 min 248 W/m 25,1 km/h (4 Bft) 93,62 %
31.05.2016 09:14 17,8 C 20,6 C 17,2 C 82 % 0 lf 1006,7 hPa 0,0 l/m 0 min 0 min 222 W/m 23,0 km/h (4 Bft) 95,74 %
31.05.2016 09:16 17,8 C 20,0 C 17,2 C 82 % 0 lf 1006,7 hPa 0,0 l/m 0 min 0 min 220 W/m 23,0 km/h (4 Bft) 93,62 %
31.05.2016 09:18 17,8 C 18,9 C 17,2 C 82 % 0 lf 1006,7 hPa 0,0 l/m 0 min 0 min 212 W/m 25,1 km/h (4 Bft) 95,65 %
31.05.2016 09:20 17,8 C 18,9 C 17,2 C 82 % 0 lf 1006,8 hPa 0,0 l/m 0 min 0 min 194 W/m 27,2 km/h (4 Bft) 97,87 %
31.05.2016 09:22 17,8 C 18,9 C 17,2 C 81 % 0 lf 1006,8 hPa 0,0 l/m 0 min 0 min 176 W/m 31,4 km/h (5 Bft) 97,87 %
31.05.2016 09:24 17,8 C 18,3 C 17,2 C 81 % 0 lf 1006,8 hPa 0,0 l/m 0 min 0 min 193 W/m 20,9 km/h (4 Bft) 97,87 %
31.05.2016 09:26 17,7 C 18,3 C 17,2 C 81 % 0 lf 1006,9 hPa 0,0 l/m 0 min 0 min 191 W/m 20,9 km/h (4 Bft) 95,74 %
31.05.2016 09:28 17,7 C 18,3 C 17,2 C 82 % 0 lf 1006,9 hPa 0,0 l/m 0 min 0 min 172 W/m 23,0 km/h (4 Bft) 97,87 %
31.05.2016 09:30 17,7 C 18,3 C 17,2 C 82 % 0 lf 1006,8 hPa 0,0 l/m 0 min 0 min 204 W/m 16,7 km/h (3 Bft) 97,83 %
31.05.2016 09:32 17,7 C 18,3 C 17,2 C 82 % 0 lf 1006,7 hPa 0,0 l/m 0 min 0 min 196 W/m 20,9 km/h (4 Bft) 95,74 %
31.05.2016 09:34 17,7 C 18,9 C 17,2 C 82 % 0 lf 1006,8 hPa 0,0 l/m 0 min 0 min 230 W/m 27,2 km/h (4 Bft) 95,74 %
31.05.2016 09:36 17,7 C 18,9 C 17,8 C 82 % 0 lf 1006,8 hPa 0,0 l/m 0 min 0 min 276 W/m 29,3 km/h (5 Bft) 93,62 %
31.05.2016 09:38 17,7 C 18,9 C 17,8 C 82 % 0 lf 1006,9 hPa 0,0 l/m 0 min 0 min 264 W/m 23,0 km/h (4 Bft) 95,74 %
31.05.2016 09:40 17,7 C 19,4 C 17,8 C 82 % 0 lf 1006,9 hPa 0,0 l/m 0 min 0 min 265 W/m 20,9 km/h (4 Bft) 95,74 %
31.05.2016 09:42 17,7 C 18,9 C 17,8 C 82 % 0 lf 1006,9 hPa 0,0 l/m 0 min 0 min 272 W/m 25,1 km/h (4 Bft) 95,65 %
31.05.2016 09:44 17,7 C 18,9 C 17,8 C 82 % 0 lf 1007,0 hPa 0,0 l/m 0 min 0 min 241 W/m 25,1 km/h (4 Bft) 95,74 %
31.05.2016 09:46 17,7 C 18,9 C 17,8 C 82 % 0 lf 1007,0 hPa 0,0 l/m 0 min 0 min 231 W/m 25,1 km/h (4 Bft) 93,62 %
31.05.2016 09:48 17,7 C 18,9 C 17,8 C 82 % 0 lf 1006,9 hPa 0,0 l/m 0 min 0 min 217 W/m 31,4 km/h (5 Bft) 95,74 %
31.05.2016 09:50 17,7 C 18,9 C 17,8 C 82 % 0 lf 1007,1 hPa 0,0 l/m 0 min 0 min 234 W/m 31,4 km/h (5 Bft) 91,49 %
31.05.2016 09:52 17,7 C 18,9 C 17,8 C 82 % 0 lf 1007,1 hPa 0,0 l/m 0 min 0 min 259 W/m 29,3 km/h (5 Bft) 91,49 %
31.05.2016 09:54 17,7 C 18,9 C 17,8 C 81 % 0 lf 1007,1 hPa 0,0 l/m 0 min 0 min 270 W/m 29,3 km/h (5 Bft) 97,83 %
31.05.2016 09:56 17,7 C 18,9 C 18,3 C 81 % 0 lf 1007,0 hPa 0,0 l/m 0 min 0 min 287 W/m 29,3 km/h (5 Bft) 95,74 %
31.05.2016 09:58 17,7 C 19,4 C 18,3 C 82 % 0 lf 1007,0 hPa 0,0 l/m 2 min 0 min 322 W/m 25,1 km/h (4 Bft) 97,87 %
31.05.2016 10:00 17,8 C 20,0 C 18,9 C 82 % 0 lf 1007,0 hPa 0,0 l/m 2 min 0 min 387 W/m 20,9 km/h (4 Bft) 97,87 %
31.05.2016 10:02 17,8 C 20,6 C 19,4 C 82 % 0 lf 1007,1 hPa 0,0 l/m 2 min 0 min 390 W/m 25,1 km/h (4 Bft) 95,74 %
31.05.2016 10:04 17,9 C 22,2 C 20,6 C 82 % 0 lf 1007,1 hPa 0,0 l/m 2 min 0 min 401 W/m 27,2 km/h (4 Bft) 97,87 %
31.05.2016 10:06 18,0 C 22,8 C 21,1 C 82 % 0 lf 1007,1 hPa 0,0 l/m 2 min 0 min 400 W/m 25,1 km/h (4 Bft) 97,83 %
31.05.2016 10:08 18,1 C 21,7 C 20,6 C 82 % 0 lf 1007,1 hPa 0,0 l/m 2 min 0 min 381 W/m 23,0 km/h (4 Bft) 91,49 %
31.05.2016 10:10 18,2 C 21,7 C 20,6 C 81 % 0 lf 1007,1 hPa 0,0 l/m 2 min 0 min 458 W/m 23,0 km/h (4 Bft) 97,87 %
31.05.2016 10:12 18,2 C 22,2 C 20,6 C 80 % 0 lf 1007,1 hPa 0,0 l/m 2 min 0 min 472 W/m 27,2 km/h (4 Bft) 97,87 %
31.05.2016 10:14 18,3 C 23,3 C 21,1 C 81 % 0 lf 1007,1 hPa 0,0 l/m 2 min 0 min 482 W/m 25,1 km/h (4 Bft) 95,74 %
31.05.2016 10:16 18,4 C 23,3 C 21,1 C 80 % 0 lf 1007,1 hPa 0,0 l/m 2 min 0 min 542 W/m 29,3 km/h (5 Bft) 95,74 %
31.05.2016 10:18 18,5 C 23,9 C 22,2 C 80 % 0 lf 1007,1 hPa 0,0 l/m 2 min 0 min 582 W/m 27,2 km/h (4 Bft) 100,00 %
31.05.2016 10:20 18,6 C 25,6 C 23,3 C 80 % 0 lf 1007,1 hPa 0,0 l/m 2 min 0 min 778 W/m 29,3 km/h (5 Bft) 97,87 %
31.05.2016 10:22 18,8 C 25,0 C 23,3 C 80 % 0 lf 1007,1 hPa 0,0 l/m 2 min 0 min 821 W/m 23,0 km/h (4 Bft) 100,00 %
31.05.2016 10:24 18,9 C 23,3 C 21,7 C 79 % 0 lf 1007,1 hPa 0,0 l/m 2 min 0 min 527 W/m 23,0 km/h (4 Bft) 100,00 %
31.05.2016 10:26 19,0 C 23,9 C 22,8 C 80 % 0 lf 1007,2 hPa 0,0 l/m 2 min 0 min 410 W/m 18,8 km/h (3 Bft) 97,87 %
31.05.2016 10:28 19,1 C 23,9 C 22,8 C 79 % 0 lf 1007,2 hPa 0,0 l/m 2 min 0 min 401 W/m 20,9 km/h (4 Bft) 100,00 %
31.05.2016 10:30 19,2 C 23,3 C 22,8 C 78 % 0 lf 1007,2 hPa 0,0 l/m 2 min 0 min 401 W/m 23,0 km/h (4 Bft) 100,00 %
31.05.2016 10:32 19,2 C 22,8 C 21,7 C 78 % 0 lf 1007,2 hPa 0,0 l/m 0 min 0 min 300 W/m 20,9 km/h (4 Bft) 100,00 %
31.05.2016 10:34 19,3 C 22,2 C 21,1 C 77 % 0 lf 1007,2 hPa 0,0 l/m 0 min 0 min 311 W/m 14,6 km/h (3 Bft) 97,87 %
31.05.2016 10:36 19,3 C 21,1 C 20,0 C 78 % 0 lf 1007,3 hPa 0,0 l/m 0 min 0 min 271 W/m 23,0 km/h (4 Bft) 100,00 %
31.05.2016 10:38 19,3 C 21,7 C 20,0 C 77 % 0 lf 1007,3 hPa 0,0 l/m 0 min 0 min 325 W/m 18,8 km/h (3 Bft) 95,74 %
31.05.2016 10:40 19,3 C 21,1 C 20,6 C 77 % 0 lf 1007,3 hPa 0,0 l/m 2 min 0 min 369 W/m 20,9 km/h (4 Bft) 97,87 %
31.05.2016 10:42 19,3 C 21,1 C 20,0 C 77 % 0 lf 1007,5 hPa 0,0 l/m 0 min 0 min 327 W/m 27,2 km/h (4 Bft) 97,83 %
31.05.2016 10:44 19,3 C 21,1 C 20,0 C 76 % 0 lf 1007,5 hPa 0,0 l/m 2 min 0 min 361 W/m 27,2 km/h (4 Bft) 93,62 %
31.05.2016 10:46 19,3 C 21,7 C 20,0 C 76 % 0 lf 1007,5 hPa 0,0 l/m 2 min 0 min 396 W/m 18,8 km/h (3 Bft) 95,74 %
31.05.2016 10:48 19,3 C 21,7 C 20,6 C 77 % 0 lf 1007,5 hPa 0,0 l/m 2 min 0 min 395 W/m 14,6 km/h (3 Bft) 97,87 %
31.05.2016 10:50 19,3 C 22,2 C 20,6 C 77 % 0 lf 1007,6 hPa 0,0 l/m 2 min 0 min 419 W/m 20,9 km/h (4 Bft) 95,74 %
31.05.2016 10:52 19,3 C 22,2 C 20,6 C 77 % 0 lf 1007,6 hPa 0,0 l/m 2 min 0 min 437 W/m 18,8 km/h (3 Bft) 97,83 %
31.05.2016 10:54 19,3 C 22,2 C 21,1 C 77 % 0 lf 1007,6 hPa 0,0 l/m 2 min 0 min 475 W/m 27,2 km/h (4 Bft) 97,87 %
31.05.2016 10:56 19,3 C 21,7 C 20,6 C 76 % 0 lf 1007,7 hPa 0,0 l/m 2 min 0 min 408 W/m 29,3 km/h (5 Bft) 95,74 %
31.05.2016 10:58 19,3 C 21,7 C 20,6 C 77 % 0 lf 1007,7 hPa 0,0 l/m 2 min 0 min 420 W/m 29,3 km/h (5 Bft) 95,74 %
31.05.2016 11:00 19,3 C 21,1 C 20,6 C 77 % 0 lf 1007,7 hPa 0,0 l/m 2 min 0 min 399 W/m 27,2 km/h (4 Bft) 93,62 %
31.05.2016 11:02 19,3 C 21,1 C 20,0 C 76 % 0 lf 1007,8 hPa 0,0 l/m 2 min 0 min 386 W/m 20,9 km/h (4 Bft) 95,74 %
31.05.2016 11:04 19,3 C 21,7 C 20,6 C 77 % 0 lf 1007,8 hPa 0,0 l/m 2 min 0 min 401 W/m 14,6 km/h (3 Bft) 97,83 %
31.05.2016 11:06 19,3 C 22,2 C 20,6 C 77 % 0 lf 1007,8 hPa 0,0 l/m 2 min 0 min 410 W/m 20,9 km/h (4 Bft) 95,74 %
31.05.2016 11:08 19,3 C 21,7 C 20,6 C 77 % 0 lf 1007,8 hPa 0,0 l/m 2 min 0 min 439 W/m 16,7 km/h (3 Bft) 95,74 %
31.05.2016 11:10 19,4 C 22,2 C 21,1 C 77 % 0 lf 1007,8 hPa 0,0 l/m 2 min 0 min 421 W/m 25,1 km/h (4 Bft) 93,62 %
31.05.2016 11:12 19,4 C 22,8 C 21,1 C 78 % 0 lf 1007,8 hPa 0,0 l/m 2 min 0 min 386 W/m 27,2 km/h (4 Bft) 93,62 %
31.05.2016 11:14 19,4 C 21,1 C 20,6 C 77 % 0 lf 1007,8 hPa 0,0 l/m 0 min 0 min 359 W/m 23,0 km/h (4 Bft) 93,62 %
31.05.2016 11:16 19,4 C 21,1 C 20,6 C 76 % 0 lf 1007,8 hPa 0,0 l/m 2 min 0 min 394 W/m 25,1 km/h (4 Bft) 91,30 %
31.05.2016 11:18 19,4 C 21,7 C 20,6 C 76 % 0 lf 1007,8 hPa 0,0 l/m 2 min 0 min 379 W/m 20,9 km/h (4 Bft) 91,49 %
31.05.2016 11:20 19,4 C 22,2 C 20,6 C 75 % 0 lf 1007,7 hPa 0,0 l/m 2 min 0 min 430 W/m 27,2 km/h (4 Bft) 95,74 %
31.05.2016 11:22 19,4 C 22,8 C 21,7 C 76 % 0 lf 1007,8 hPa 0,0 l/m 2 min 0 min 513 W/m 25,1 km/h (4 Bft) 95,74 %
31.05.2016 11:24 19,6 C 25,0 C 23,3 C 76 % 0 lf 1007,7 hPa 0,0 l/m 2 min 0 min 721 W/m 29,3 km/h (5 Bft) 95,74 %
31.05.2016 11:26 19,6 C 23,9 C 22,8 C 75 % 0 lf 1007,8 hPa 0,0 l/m 2 min 0 min 733 W/m 27,2 km/h (4 Bft) 95,74 %
31.05.2016 11:28 19,7 C 24,4 C 22,8 C 75 % 0 lf 1007,9 hPa 0,0 l/m 2 min 0 min 619 W/m 25,1 km/h (4 Bft) 97,83 %
31.05.2016 11:30 19,7 C 24,4 C 22,8 C 75 % 0 lf 1007,8 hPa 0,0 l/m 2 min 0 min 573 W/m 18,8 km/h (3 Bft) 97,87 %
31.05.2016 11:32 19,8 C 23,9 C 22,8 C 75 % 0 lf 1007,9 hPa 0,0 l/m 2 min 0 min 438 W/m 16,7 km/h (3 Bft) 95,74 %
31.05.2016 11:34 19,9 C 22,8 C 22,2 C 75 % 0 lf 1007,9 hPa 0,0 l/m 2 min 0 min 465 W/m 25,1 km/h (4 Bft) 97,87 %
31.05.2016 11:36 19,9 C 22,8 C 21,7 C 74 % 0 lf 1008,0 hPa 0,0 l/m 2 min 0 min 483 W/m 27,2 km/h (4 Bft) 97,87 %
31.05.2016 11:38 19,9 C 22,8 C 22,2 C 74 % 0 lf 1008,0 hPa 0,0 l/m 2 min 0 min 552 W/m 23,0 km/h (4 Bft) 97,87 %
31.05.2016 11:40 19,9 C 23,3 C 22,2 C 74 % 0 lf 1008,0 hPa 0,0 l/m 2 min 0 min 564 W/m 20,9 km/h (4 Bft) 95,65 %
31.05.2016 11:42 20,0 C 23,9 C 22,2 C 74 % 0 lf 1008,0 hPa 0,0 l/m 2 min 0 min 608 W/m 23,0 km/h (4 Bft) 93,62 %
31.05.2016 11:44 20,0 C 22,8 C 22,2 C 73 % 0 lf 1008,0 hPa 0,0 l/m 2 min 0 min 646 W/m 25,1 km/h (4 Bft) 97,87 %
31.05.2016 11:46 20,1 C 23,3 C 22,2 C 73 % 0 lf 1008,0 hPa 0,0 l/m 2 min 0 min 536 W/m 16,7 km/h (3 Bft) 97,87 %
31.05.2016 11:48 20,1 C 23,3 C 22,2 C 74 % 0 lf 1008,1 hPa 0,0 l/m 2 min 0 min 536 W/m 18,8 km/h (3 Bft) 95,74 %
31.05.2016 11:50 20,1 C 23,3 C 22,2 C 74 % 0 lf 1008,1 hPa 0,0 l/m 2 min 0 min 536 W/m 20,9 km/h (4 Bft) 91,49 %
31.05.2016 11:52 20,2 C 24,4 C 23,3 C 74 % 0 lf 1008,1 hPa 0,0 l/m 2 min 0 min 536 W/m 29,3 km/h (5 Bft) 93,48 %
31.05.2016 11:54 20,3 C 26,7 C 25,0 C 76 % 0 lf 1008,1 hPa 0,0 l/m 2 min 0 min 677 W/m 16,7 km/h (3 Bft) 95,74 %
31.05.2016 11:56 20,3 C 23,9 C 23,3 C 73 % 0 lf 1008,2 hPa 0,0 l/m 2 min 0 min 572 W/m 27,2 km/h (4 Bft) 95,74 %
31.05.2016 11:58 20,4 C 23,3 C 22,8 C 73 % 0 lf 1008,2 hPa 0,0 l/m 0 min 0 min 392 W/m 31,4 km/h (5 Bft) 95,74 %
31.05.2016 12:00 20,3 C 23,3 C 22,2 C 72 % 0 lf 1008,2 hPa 0,0 l/m 2 min 0 min 457 W/m 31,4 km/h (5 Bft) 97,87 %
31.05.2016 12:02 20,4 C 25,0 C 23,9 C 73 % 0 lf 1008,3 hPa 0,0 l/m 2 min 0 min 658 W/m 20,9 km/h (4 Bft) 95,74 %
31.05.2016 12:04 20,4 C 24,4 C 23,9 C 73 % 0 lf 1008,3 hPa 0,0 l/m 2 min 0 min 743 W/m 20,9 km/h (4 Bft) 97,83 %
31.05.2016 12:06 20,5 C 24,4 C 23,9 C 72 % 0 lf 1008,3 hPa 0,0 l/m 2 min 0 min 550 W/m 23,0 km/h (4 Bft) 95,74 %
31.05.2016 12:08 20,5 C 24,4 C 23,9 C 73 % 0 lf 1008,3 hPa 0,0 l/m 2 min 0 min 688 W/m 20,9 km/h (4 Bft) 95,74 %
31.05.2016 12:10 20,6 C 25,0 C 24,4 C 73 % 0 lf 1008,3 hPa 0,0 l/m 2 min 0 min 703 W/m 16,7 km/h (3 Bft) 95,74 %
31.05.2016 12:12 20,7 C 26,1 C 25,0 C 73 % 0 lf 1008,4 hPa 0,0 l/m 2 min 0 min 894 W/m 29,3 km/h (5 Bft) 93,62 %
31.05.2016 12:14 20,8 C 25,0 C 23,9 C 72 % 0 lf 1008,4 hPa 0,0 l/m 2 min 0 min 916 W/m 23,0 km/h (4 Bft) 95,74 %
31.05.2016 12:16 20,8 C 24,4 C 23,9 C 72 % 0 lf 1008,3 hPa 0,0 l/m 2 min 0 min 572 W/m 23,0 km/h (4 Bft) 93,48 %
31.05.2016 12:18 20,8 C 23,9 C 23,3 C 71 % 0 lf 1008,4 hPa 0,0 l/m 2 min 0 min 601 W/m 23,0 km/h (4 Bft) 95,74 %
31.05.2016 12:20 20,8 C 24,4 C 22,8 C 71 % 0 lf 1008,4 hPa 0,0 l/m 2 min 0 min 611 W/m 23,0 km/h (4 Bft) 93,62 %
31.05.2016 12:22 20,9 C 24,4 C 22,8 C 71 % 0 lf 1008,4 hPa 0,0 l/m 2 min 0 min 550 W/m 27,2 km/h (4 Bft) 97,87 %
31.05.2016 12:24 20,9 C 23,3 C 22,8 C 70 % 0 lf 1008,5 hPa 0,0 l/m 2 min 0 min 523 W/m 20,9 km/h (4 Bft) 95,74 %
31.05.2016 12:26 20,9 C 22,8 C 22,8 C 70 % 0 lf 1008,5 hPa 0,0 l/m 2 min 0 min 514 W/m 31,4 km/h (5 Bft) 97,83 %
31.05.2016 12:28 20,8 C 23,3 C 22,8 C 70 % 0 lf 1008,5 hPa 0,0 l/m 2 min 0 min 537 W/m 23,0 km/h (4 Bft) 91,49 %
31.05.2016 12:30 20,8 C 23,3 C 22,8 C 70 % 0 lf 1008,5 hPa 0,0 l/m 2 min 0 min 526 W/m 20,9 km/h (4 Bft) 97,87 %
31.05.2016 12:32 20,8 C 23,3 C 22,8 C 71 % 0 lf 1008,5 hPa 0,0 l/m 2 min 0 min 483 W/m 20,9 km/h (4 Bft) 97,87 %
31.05.2016 12:34 20,8 C 23,3 C 22,2 C 69 % 0 lf 1008,5 hPa 0,0 l/m 2 min 0 min 436 W/m 20,9 km/h (4 Bft) 95,74 %
31.05.2016 12:36 20,8 C 22,2 C 21,7 C 70 % 0 lf 1008,5 hPa 0,0 l/m 0 min 0 min 405 W/m 29,3 km/h (5 Bft) 97,87 %
31.05.2016 12:38 20,7 C 22,2 C 21,7 C 70 % 0 lf 1008,6 hPa 0,0 l/m 2 min 0 min 423 W/m 29,3 km/h (5 Bft) 97,83 %
31.05.2016 12:40 20,7 C 22,8 C 22,2 C 70 % 0 lf 1008,5 hPa 0,0 l/m 2 min 0 min 508 W/m 25,1 km/h (4 Bft) 97,87 %
31.05.2016 12:42 20,7 C 22,2 C 22,2 C 70 % 0 lf 1008,6 hPa 0,0 l/m 2 min 0 min 478 W/m 25,1 km/h (4 Bft) 95,74 %
31.05.2016 12:44 20,6 C 22,8 C 22,2 C 70 % 0 lf 1008,6 hPa 0,0 l/m 0 min 0 min 413 W/m 23,0 km/h (4 Bft) 100,00 %
31.05.2016 12:46 20,6 C 22,2 C 22,2 C 70 % 0 lf 1008,7 hPa 0,0 l/m 0 min 0 min 408 W/m 20,9 km/h (4 Bft) 93,62 %
31.05.2016 12:48 20,6 C 22,2 C 22,2 C 71 % 0 lf 1008,7 hPa 0,0 l/m 0 min 0 min 378 W/m 18,8 km/h (3 Bft) 97,87 %
31.05.2016 12:50 20,6 C 22,2 C 21,7 C 70 % 0 lf 1008,7 hPa 0,0 l/m 0 min 0 min 374 W/m 20,9 km/h (4 Bft) 95,65 %
31.05.2016 12:52 20,6 C 22,2 C 22,2 C 71 % 0 lf 1008,7 hPa 0,0 l/m 0 min 0 min 399 W/m 16,7 km/h (3 Bft) 97,87 %
31.05.2016 12:54 20,6 C 22,8 C 21,7 C 70 % 0 lf 1008,7 hPa 0,0 l/m 2 min 0 min 420 W/m 25,1 km/h (4 Bft) 97,87 %
31.05.2016 12:56 20,6 C 23,3 C 22,2 C 71 % 0 lf 1008,7 hPa 0,0 l/m 2 min 0 min 454 W/m 18,8 km/h (3 Bft) 97,87 %
31.05.2016 12:58 20,6 C 23,3 C 22,8 C 71 % 0 lf 1008,7 hPa 0,0 l/m 2 min 0 min 501 W/m 25,1 km/h (4 Bft) 95,74 %
31.05.2016 13:00 20,6 C 22,2 C 22,2 C 70 % 0 lf 1008,7 hPa 0,0 l/m 2 min 0 min 535 W/m 20,9 km/h (4 Bft) 91,49 %
31.05.2016 13:02 20,6 C 22,8 C 22,2 C 70 % 0 lf 1008,8 hPa 0,0 l/m 2 min 0 min 512 W/m 20,9 km/h (4 Bft) 95,65 %
31.05.2016 13:04 20,5 C 22,2 C 22,2 C 71 % 0 lf 1008,8 hPa 0,0 l/m 2 min 0 min 455 W/m 23,0 km/h (4 Bft) 93,62 %
31.05.2016 13:06 20,6 C 22,2 C 21,7 C 72 % 0 lf 1008,8 hPa 0,0 l/m 0 min 0 min 392 W/m 25,1 km/h (4 Bft) 97,87 %
31.05.2016 13:08 20,5 C 22,2 C 21,7 C 70 % 0 lf 1008,8 hPa 0,0 l/m 0 min 0 min 378 W/m 25,1 km/h (4 Bft) 100,00 %
31.05.2016 13:10 20,4 C 21,7 C 21,1 C 70 % 0 lf 1008,8 hPa 0,0 l/m 0 min 0 min 374 W/m 31,4 km/h (5 Bft) 97,87 %
31.05.2016 13:12 20,4 C 21,7 C 21,1 C 70 % 0 lf 1008,8 hPa 0,0 l/m 0 min 0 min 348 W/m 23,0 km/h (4 Bft) 97,87 %
31.05.2016 13:14 20,3 C 21,1 C 20,6 C 70 % 0 lf 1008,8 hPa 0,0 l/m 0 min 0 min 337 W/m 25,1 km/h (4 Bft) 97,83 %
31.05.2016 13:16 20,3 C 21,1 C 20,6 C 71 % 0 lf 1008,8 hPa 0,0 l/m 0 min 0 min 333 W/m 16,7 km/h (3 Bft) 97,87 %
31.05.2016 13:18 20,3 C 21,1 C 21,1 C 71 % 0 lf 1008,8 hPa 0,0 l/m 0 min 0 min 333 W/m 20,9 km/h (4 Bft) 97,87 %
31.05.2016 13:20 20,3 C 21,7 C 21,1 C 71 % 0 lf 1008,9 hPa 0,0 l/m 0 min 0 min 343 W/m 25,1 km/h (4 Bft) 95,74 %
31.05.2016 13:22 20,3 C 21,7 C 21,1 C 71 % 0 lf 1008,9 hPa 0,0 l/m 0 min 0 min 362 W/m 25,1 km/h (4 Bft) 97,87 %
31.05.2016 13:24 20,2 C 22,2 C 21,1 C 72 % 0 lf 1009,0 hPa 0,0 l/m 0 min 0 min 403 W/m 18,8 km/h (3 Bft) 97,87 %
31.05.2016 13:26 20,2 C 22,2 C 21,7 C 71 % 0 lf 1009,0 hPa 0,0 l/m 2 min 0 min 440 W/m 23,0 km/h (4 Bft) 93,48 %
31.05.2016 13:28 20,2 C 22,2 C 22,2 C 72 % 0 lf 1009,1 hPa 0,0 l/m 2 min 0 min 448 W/m 20,9 km/h (4 Bft) 97,87 %
31.05.2016 13:30 20,2 C 22,2 C 22,2 C 72 % 0 lf 1009,1 hPa 0,0 l/m 2 min 0 min 438 W/m 18,8 km/h (3 Bft) 97,87 %
31.05.2016 13:32 20,3 C 22,8 C 22,2 C 72 % 0 lf 1009,2 hPa 0,0 l/m 2 min 0 min 489 W/m 18,8 km/h (3 Bft) 93,62 %
31.05.2016 13:34 20,3 C 22,2 C 22,2 C 70 % 0 lf 1009,1 hPa 0,0 l/m 0 min 0 min 410 W/m 25,1 km/h (4 Bft) 95,74 %
31.05.2016 13:36 20,2 C 21,7 C 21,7 C 69 % 0 lf 1009,1 hPa 0,0 l/m 0 min 0 min 343 W/m 16,7 km/h (3 Bft) 97,83 %
31.05.2016 13:38 20,2 C 21,1 C 21,7 C 70 % 0 lf 1009,2 hPa 0,0 l/m 0 min 0 min 298 W/m 20,9 km/h (4 Bft) 97,87 %
31.05.2016 13:40 20,2 C 21,1 C 21,1 C 70 % 0 lf 1009,2 hPa 0,0 l/m 0 min 0 min 256 W/m 20,9 km/h (4 Bft) 97,87 %
31.05.2016 13:42 20,2 C 21,1 C 21,1 C 71 % 0 lf 1009,3 hPa 0,0 l/m 0 min 0 min 223 W/m 20,9 km/h (4 Bft) 93,62 %
31.05.2016 13:44 20,2 C 20,6 C 20,6 C 71 % 0 lf 1009,3 hPa 0,0 l/m 0 min 0 min 208 W/m 18,8 km/h (3 Bft) 97,87 %
31.05.2016 13:46 20,2 C 21,1 C 20,6 C 72 % 0 lf 1009,3 hPa 0,0 l/m 0 min 0 min 229 W/m 12,6 km/h (3 Bft) 97,87 %
31.05.2016 13:48 20,2 C 21,1 C 21,1 C 72 % 0 lf 1009,3 hPa 0,0 l/m 0 min 0 min 278 W/m 14,6 km/h (3 Bft) 95,65 %
31.05.2016 13:50 20,2 C 21,1 C 21,1 C 72 % 0 lf 1009,3 hPa 0,0 l/m 0 min 0 min 333 W/m 16,7 km/h (3 Bft) 95,74 %
31.05.2016 13:52 20,2 C 21,7 C 21,1 C 72 % 0 lf 1009,3 hPa 0,0 l/m 0 min 0 min 355 W/m 16,7 km/h (3 Bft) 97,87 %
31.05.2016 13:54 20,2 C 22,2 C 21,7 C 73 % 0 lf 1009,4 hPa 0,0 l/m 0 min 0 min 328 W/m 16,7 km/h (3 Bft) 97,87 %
31.05.2016 13:56 20,2 C 21,7 C 21,7 C 72 % 0 lf 1009,4 hPa 0,0 l/m 0 min 0 min 278 W/m 20,9 km/h (4 Bft) 93,62 %
31.05.2016 13:58 20,2 C 21,1 C 21,1 C 72 % 0 lf 1009,4 hPa 0,0 l/m 0 min 0 min 246 W/m 16,7 km/h (3 Bft) 93,62 %
31.05.2016 14:00 20,2 C 21,1 C 21,1 C 72 % 0 lf 1009,4 hPa 0,0 l/m 0 min 0 min 211 W/m 14,6 km/h (3 Bft) 93,48 %
31.05.2016 14:02 20,2 C 21,1 C 20,6 C 73 % 0 lf 1009,4 hPa 0,0 l/m 0 min 0 min 193 W/m 16,7 km/h (3 Bft) 93,62 %
31.05.2016 14:04 20,2 C 20,6 C 20,0 C 72 % 0 lf 1009,3 hPa 0,0 l/m 0 min 0 min 176 W/m 18,8 km/h (3 Bft) 95,74 %
31.05.2016 14:06 20,1 C 20,6 C 20,0 C 71 % 0 lf 1009,3 hPa 0,0 l/m 0 min 0 min 161 W/m 10,5 km/h (2 Bft) 95,74 %
31.05.2016 14:08 20,1 C 20,6 C 19,4 C 72 % 0 lf 1009,3 hPa 0,0 l/m 0 min 0 min 158 W/m 8,4 km/h (2 Bft) 91,49 %
31.05.2016 14:10 20,1 C 20,6 C 20,0 C 73 % 0 lf 1009,3 hPa 0,0 l/m 0 min 0 min 167 W/m 10,5 km/h (2 Bft) 97,87 %
31.05.2016 14:12 20,1 C 20,6 C 19,4 C 73 % 0 lf 1009,3 hPa 0,0 l/m 0 min 0 min 183 W/m 18,8 km/h (3 Bft) 97,83 %
31.05.2016 14:14 20,1 C 21,1 C 19,4 C 72 % 0 lf 1009,4 hPa 0,0 l/m 0 min 0 min 201 W/m 16,7 km/h (3 Bft) 93,62 %
31.05.2016 14:16 20,1 C 21,1 C 20,0 C 72 % 0 lf 1009,4 hPa 0,0 l/m 0 min 0 min 228 W/m 14,6 km/h (3 Bft) 95,74 %
31.05.2016 14:18 20,1 C 21,1 C 20,0 C 72 % 0 lf 1009,4 hPa 0,0 l/m 0 min 0 min 261 W/m 10,5 km/h (2 Bft) 95,74 %
31.05.2016 14:20 20,0 C 21,7 C 20,6 C 72 % 0 lf 1009,4 hPa 0,0 l/m 0 min 0 min 298 W/m 20,9 km/h (4 Bft) 95,74 %
31.05.2016 14:22 20,1 C 22,2 C 21,1 C 73 % 0 lf 1009,4 hPa 0,0 l/m 0 min 0 min 335 W/m 18,8 km/h (3 Bft) 97,87 %
31.05.2016 14:24 20,1 C 22,8 C 21,7 C 73 % 0 lf 1009,4 hPa 0,0 l/m 0 min 0 min 385 W/m 14,6 km/h (3 Bft) 89,13 %
31.05.2016 14:26 20,1 C 23,3 C 22,2 C 73 % 0 lf 1009,4 hPa 0,0 l/m 2 min 0 min 462 W/m 14,6 km/h (3 Bft) 95,74 %
31.05.2016 14:28 20,1 C 24,4 C 23,9 C 73 % 0 lf 1009,4 hPa 0,0 l/m 2 min 0 min 629 W/m 18,8 km/h (3 Bft) 95,74 %
31.05.2016 14:30 20,2 C 25,0 C 24,4 C 73 % 0 lf 1009,4 hPa 0,0 l/m 2 min 0 min 845 W/m 20,9 km/h (4 Bft) 95,74 %
31.05.2016 14:32 20,3 C 26,1 C 25,6 C 74 % 0 lf 1009,5 hPa 0,0 l/m 2 min 0 min 752 W/m 10,5 km/h (2 Bft) 96,23 %
31.05.2016 14:34 20,4 C 25,0 C 25,0 C 72 % 0 lf 1009,4 hPa 0,0 l/m 2 min 0 min 706 W/m 14,6 km/h (3 Bft) 97,14 %
31.05.2016 14:36 20,5 C 25,6 C 25,6 C 71 % 0 lf 1009,4 hPa 0,0 l/m 2 min 0 min 613 W/m 23,0 km/h (4 Bft) 93,62 %
31.05.2016 14:38 20,6 C 25,0 C 25,0 C 71 % 0 lf 1009,4 hPa 0,0 l/m 2 min 0 min 636 W/m 23,0 km/h (4 Bft) 96,55 %
31.05.2016 14:40 20,7 C 25,0 C 25,0 C 70 % 0 lf 1009,4 hPa 0,0 l/m 2 min 0 min 604 W/m 20,9 km/h (4 Bft) 97,22 %
31.05.2016 14:42 20,8 C 26,1 C 25,6 C 71 % 0 lf 1009,3 hPa 0,0 l/m 2 min 0 min 584 W/m 14,6 km/h (3 Bft) 95,65 %
31.05.2016 14:44 20,9 C 25,0 C 25,0 C 70 % 0 lf 1009,4 hPa 0,0 l/m 2 min 0 min 558 W/m 18,8 km/h (3 Bft) 96,61 %
31.05.2016 14:46 21,0 C 24,4 C 24,4 C 70 % 0 lf 1009,5 hPa 0,0 l/m 2 min 0 min 558 W/m 29,3 km/h (5 Bft) 100,00 %
31.05.2016 14:48 21,1 C 25,0 C 26,1 C 70 % 0 lf 1009,4 hPa 0,0 l/m 2 min 0 min 534 W/m 20,9 km/h (4 Bft) 93,62 %
31.05.2016 14:50 21,2 C 25,6 C 26,1 C 68 % 0 lf 1009,4 hPa 0,0 l/m 2 min 0 min 988 W/m 20,9 km/h (4 Bft) 97,87 %
31.05.2016 14:52 21,4 C 27,2 C 24,4 C 70 % 0 lf 1009,4 hPa 0,0 l/m 2 min 0 min 1013 W/m 20,9 km/h (4 Bft) 98,28 %
31.05.2016 14:54 21,6 C 27,8 C 23,3 C 69 % 0 lf 1009,4 hPa 0,0 l/m 2 min 0 min 978 W/m 27,2 km/h (4 Bft) 97,14 %
31.05.2016 14:56 21,6 C 26,7 C 22,8 C 67 % 0 lf 1009,4 hPa 0,0 l/m 2 min 0 min 1022 W/m 27,2 km/h (4 Bft) 96,61 %
31.05.2016 14:58 21,6 C 26,7 C 22,2 C 66 % 0 lf 1009,3 hPa 0,0 l/m 2 min 0 min 1034 W/m 29,3 km/h (5 Bft) 97,87 %
31.05.2016 15:00 21,4 C 25,0 C 22,2 C 65 % 0 lf 1009,4 hPa 0,0 l/m 2 min 0 min 872 W/m 23,0 km/h (4 Bft) 97,14 %
31.05.2016 15:02 21,3 C 23,9 C 21,7 C 67 % 0 lf 1009,4 hPa 0,0 l/m 2 min 0 min 818 W/m 35,6 km/h (5 Bft) 95,74 %
31.05.2016 15:04 21,1 C 23,3 C 22,2 C 67 % 0 lf 1009,5 hPa 0,0 l/m 2 min 0 min 880 W/m 23,0 km/h (4 Bft) 97,87 %
31.05.2016 15:06 21,0 C 23,3 C 22,8 C 69 % 0 lf 1009,5 hPa 0,0 l/m 2 min 0 min 867 W/m 23,0 km/h (4 Bft) 98,28 %
31.05.2016 15:08 20,9 C 23,3 C 22,8 C 68 % 0 lf 1009,5 hPa 0,0 l/m 2 min 0 min 867 W/m 14,6 km/h (3 Bft) 97,87 %
31.05.2016 15:10 21,0 C 23,3 C 22,8 C 70 % 0 lf 1009,5 hPa 0,0 l/m 2 min 0 min 859 W/m 10,5 km/h (2 Bft) 97,14 %
31.05.2016 15:12 21,0 C 23,3 C 23,3 C 69 % 0 lf 1009,4 hPa 0,0 l/m 2 min 0 min 889 W/m 23,0 km/h (4 Bft) 94,92 %
31.05.2016 15:14 21,0 C 24,4 C 24,4 C 70 % 0 lf 1009,5 hPa 0,0 l/m 2 min 0 min 1018 W/m 18,8 km/h (3 Bft) 94,29 %
31.05.2016 15:16 21,1 C 23,9 C 25,0 C 68 % 0 lf 1009,6 hPa 0,0 l/m 2 min 0 min 1045 W/m 18,8 km/h (3 Bft) 96,55 %
31.05.2016 15:18 21,1 C 23,9 C 25,6 C 68 % 0 lf 1009,5 hPa 0,0 l/m 2 min 0 min 1030 W/m 18,8 km/h (3 Bft) 97,14 %
31.05.2016 15:20 21,2 C 24,4 C 25,6 C 69 % 0 lf 1009,5 hPa 0,0 l/m 2 min 0 min 971 W/m 14,6 km/h (3 Bft) 100,00 %
31.05.2016 15:22 21,4 C 23,9 C 25,6 C 69 % 0 lf 1009,5 hPa 0,0 l/m 2 min 0 min 918 W/m 23,0 km/h (4 Bft) 97,87 %
31.05.2016 15:24 21,4 C 23,9 C 25,0 C 70 % 0 lf 1009,5 hPa 0,0 l/m 2 min 0 min 922 W/m 23,0 km/h (4 Bft) 97,14 %
31.05.2016 15:26 21,5 C 23,9 C 25,0 C 71 % 0 lf 1009,6 hPa 0,0 l/m 2 min 0 min 881 W/m 20,9 km/h (4 Bft) 98,28 %
31.05.2016 15:28 21,4 C 23,3 C 23,9 C 68 % 0 lf 1009,6 hPa 0,0 l/m 2 min 0 min 825 W/m 20,9 km/h (4 Bft) 100,00 %
31.05.2016 15:30 21,3 C 23,3 C 23,3 C 69 % 0 lf 1009,6 hPa 0,0 l/m 2 min 0 min 790 W/m 20,9 km/h (4 Bft) 100,00 %
31.05.2016 15:32 21,2 C 22,8 C 22,8 C 69 % 0 lf 1009,6 hPa 0,0 l/m 2 min 0 min 757 W/m 18,8 km/h (3 Bft) 94,29 %
31.05.2016 15:34 21,1 C 22,2 C 22,8 C 69 % 0 lf 1009,7 hPa 0,0 l/m 2 min 0 min 753 W/m 14,6 km/h (3 Bft) 97,87 %
31.05.2016 15:36 21,0 C 22,8 C 22,2 C 71 % 0 lf 1009,7 hPa 0,0 l/m 2 min 0 min 753 W/m 20,9 km/h (4 Bft) 96,55 %
31.05.2016 15:38 20,9 C 22,2 C 22,2 C 69 % 0 lf 1009,7 hPa 0,0 l/m 2 min 0 min 762 W/m 20,9 km/h (4 Bft) 97,87 %
31.05.2016 15:40 20,9 C 22,8 C 22,2 C 69 % 0 lf 1009,7 hPa 0,0 l/m 2 min 0 min 787 W/m 23,0 km/h (4 Bft) 95,74 %
31.05.2016 15:42 21,0 C 22,8 C 22,2 C 70 % 0 lf 1009,6 hPa 0,0 l/m 2 min 0 min 800 W/m 20,9 km/h (4 Bft) 95,74 %
31.05.2016 15:44 20,9 C 22,8 C 22,2 C 68 % 0 lf 1009,7 hPa 0,0 l/m 2 min 0 min 812 W/m 20,9 km/h (4 Bft) 95,74 %
31.05.2016 15:46 20,8 C 22,8 C 22,2 C 69 % 0 lf 1009,7 hPa 0,0 l/m 2 min 0 min 861 W/m 23,0 km/h (4 Bft) 95,74 %
31.05.2016 15:48 20,9 C 23,9 C 23,3 C 70 % 0 lf 1009,7 hPa 0,0 l/m 2 min 0 min 927 W/m 20,9 km/h (4 Bft) 95,65 %
31.05.2016 15:50 21,0 C 23,9 C 24,4 C 71 % 0 lf 1009,7 hPa 0,0 l/m 2 min 0 min 982 W/m 23,0 km/h (4 Bft) 95,74 %
31.05.2016 15:52 21,1 C 24,4 C 24,4 C 70 % 0 lf 1009,7 hPa 0,0 l/m 2 min 0 min 981 W/m 16,7 km/h (3 Bft) 95,74 %
31.05.2016 15:54 21,3 C 24,4 C 25,6 C 70 % 0 lf 1009,7 hPa 0,0 l/m 2 min 0 min 978 W/m 12,6 km/h (3 Bft) 95,74 %
31.05.2016 15:56 21,3 C 23,9 C 25,0 C 69 % 0 lf 1009,7 hPa 0,0 l/m 2 min 0 min 964 W/m 20,9 km/h (4 Bft) 95,74 %
31.05.2016 15:58 21,2 C 23,9 C 24,4 C 69 % 0 lf 1009,8 hPa 0,0 l/m 2 min 0 min 904 W/m 20,9 km/h (4 Bft) 91,49 %
31.05.2016 16:00 21,2 C 23,9 C 24,4 C 69 % 0 lf 1009,7 hPa 0,0 l/m 2 min 0 min 876 W/m 18,8 km/h (3 Bft) 95,74 %
31.05.2016 16:02 21,3 C 25,6 C 26,7 C 69 % 0 lf 1009,7 hPa 0,0 l/m 2 min 0 min 907 W/m 16,7 km/h (3 Bft) 93,48 %
31.05.2016 16:04 21,5 C 26,1 C 27,8 C 68 % 0 lf 1009,8 hPa 0,0 l/m 2 min 0 min 1050 W/m 23,0 km/h (4 Bft) 91,49 %
31.05.2016 16:06 21,7 C 25,6 C 26,7 C 67 % 0 lf 1009,8 hPa 0,0 l/m 2 min 0 min 1071 W/m 18,8 km/h (3 Bft) 93,62 %
31.05.2016 16:08 21,6 C 24,4 C 25,6 C 66 % 0 lf 1009,9 hPa 0,0 l/m 2 min 0 min 825 W/m 20,9 km/h (4 Bft) 93,62 %
31.05.2016 16:10 21,4 C 23,3 C 24,4 C 67 % 0 lf 1009,8 hPa 0,0 l/m 2 min 0 min 766 W/m 18,8 km/h (3 Bft) 93,62 %
31.05.2016 16:12 21,3 C 22,8 C 23,3 C 68 % 0 lf 1009,9 hPa 0,0 l/m 2 min 0 min 713 W/m 23,0 km/h (4 Bft) 89,13 %
31.05.2016 16:14 21,1 C 22,2 C 22,2 C 68 % 0 lf 1009,9 hPa 0,0 l/m 2 min 0 min 700 W/m 14,6 km/h (3 Bft) 93,62 %
31.05.2016 16:16 21,0 C 22,2 C 22,2 C 68 % 0 lf 1009,9 hPa 0,0 l/m 2 min 0 min 697 W/m 16,7 km/h (3 Bft) 91,49 %
31.05.2016 16:18 20,9 C 22,2 C 21,7 C 68 % 0 lf 1009,8 hPa 0,0 l/m 2 min 0 min 678 W/m 14,6 km/h (3 Bft) 93,62 %
31.05.2016 16:20 20,9 C 22,2 C 21,7 C 68 % 0 lf 1009,9 hPa 0,0 l/m 2 min 0 min 655 W/m 16,7 km/h (3 Bft) 93,62 %
31.05.2016 16:22 20,8 C 22,2 C 21,7 C 68 % 0 lf 1009,9 hPa 0,0 l/m 2 min 0 min 661 W/m 10,5 km/h (2 Bft) 93,62 %
31.05.2016 16:24 20,8 C 22,8 C 21,7 C 69 % 0 lf 1009,9 hPa 0,0 l/m 2 min 0 min 682 W/m 12,6 km/h (3 Bft) 91,30 %
31.05.2016 16:26 20,8 C 22,8 C 21,7 C 70 % 0 lf 1010,0 hPa 0,0 l/m 2 min 0 min 698 W/m 10,5 km/h (2 Bft) 93,62 %
31.05.2016 16:28 20,8 C 22,2 C 21,7 C 71 % 0 lf 1010,0 hPa 0,0 l/m 2 min 0 min 700 W/m 12,6 km/h (3 Bft) 93,62 %
31.05.2016 16:30 20,8 C 22,2 C 22,2 C 69 % 0 lf 1010,0 hPa 0,0 l/m 2 min 0 min 699 W/m 20,9 km/h (4 Bft) 95,74 %
31.05.2016 16:32 20,8 C 22,2 C 22,2 C 70 % 0 lf 1010,0 hPa 0,0 l/m 2 min 0 min 692 W/m 18,8 km/h (3 Bft) 95,74 %
31.05.2016 16:34 20,8 C 22,2 C 21,7 C 69 % 0 lf 1010,0 hPa 0,0 l/m 2 min 0 min 706 W/m 18,8 km/h (3 Bft) 93,62 %
31.05.2016 16:36 20,8 C 22,2 C 21,7 C 70 % 0 lf 1010,0 hPa 0,0 l/m 2 min 0 min 711 W/m 16,7 km/h (3 Bft) 95,65 %
31.05.2016 16:38 20,7 C 22,2 C 21,7 C 69 % 0 lf 1010,0 hPa 0,0 l/m 2 min 0 min 722 W/m 18,8 km/h (3 Bft) 97,87 %
31.05.2016 16:40 20,7 C 21,7 C 21,7 C 69 % 0 lf 1010,0 hPa 0,0 l/m 2 min 0 min 728 W/m 18,8 km/h (3 Bft) 97,87 %
31.05.2016 16:42 20,7 C 21,7 C 21,7 C 70 % 0 lf 1010,1 hPa 0,0 l/m 2 min 0 min 731 W/m 18,8 km/h (3 Bft) 97,87 %
31.05.2016 16:44 20,6 C 21,7 C 21,7 C 70 % 0 lf 1010,0 hPa 0,0 l/m 2 min 0 min 731 W/m 20,9 km/h (4 Bft) 100,00 %
31.05.2016 16:46 20,6 C 21,7 C 21,7 C 70 % 0 lf 1010,0 hPa 0,0 l/m 2 min 0 min 721 W/m 20,9 km/h (4 Bft) 97,87 %
31.05.2016 16:48 20,6 C 21,7 C 21,7 C 70 % 0 lf 1010,1 hPa 0,0 l/m 2 min 0 min 705 W/m 14,6 km/h (3 Bft) 100,00 %
31.05.2016 16:50 20,6 C 21,7 C 21,1 C 70 % 0 lf 1010,1 hPa 0,0 l/m 2 min 0 min 686 W/m 18,8 km/h (3 Bft) 100,00 %
31.05.2016 16:52 20,6 C 21,7 C 21,1 C 70 % 0 lf 1010,0 hPa 0,0 l/m 2 min 0 min 671 W/m 18,8 km/h (3 Bft) 97,87 %
31.05.2016 16:54 20,5 C 21,7 C 21,1 C 70 % 0 lf 1010,1 hPa 0,0 l/m 2 min 0 min 648 W/m 16,7 km/h (3 Bft) 100,00 %
31.05.2016 16:56 20,5 C 21,1 C 21,1 C 70 % 0 lf 1010,1 hPa 0,0 l/m 2 min 0 min 638 W/m 20,9 km/h (4 Bft) 100,00 %
31.05.2016 16:58 20,4 C 21,1 C 20,6 C 70 % 0 lf 1010,1 hPa 0,0 l/m 2 min 0 min 624 W/m 16,7 km/h (3 Bft) 97,83 %
31.05.2016 17:00 20,4 C 21,1 C 20,6 C 70 % 0 lf 1010,1 hPa 0,0 l/m 2 min 0 min 623 W/m 16,7 km/h (3 Bft) 97,87 %
31.05.2016 17:02 20,3 C 21,1 C 20,6 C 70 % 0 lf 1010,1 hPa 0,0 l/m 2 min 0 min 614 W/m 14,6 km/h (3 Bft) 97,87 %
31.05.2016 17:04 20,3 C 20,6 C 20,0 C 71 % 0 lf 1010,1 hPa 0,0 l/m 2 min 0 min 616 W/m 16,7 km/h (3 Bft) 100,00 %
31.05.2016 17:06 20,3 C 20,6 C 20,0 C 71 % 0 lf 1010,1 hPa 0,0 l/m 2 min 0 min 611 W/m 20,9 km/h (4 Bft) 100,00 %
31.05.2016 17:08 20,2 C 21,1 C 20,0 C 71 % 0 lf 1010,1 hPa 0,0 l/m 2 min 0 min 608 W/m 18,8 km/h (3 Bft) 97,87 %
31.05.2016 17:10 20,2 C 20,6 C 19,4 C 72 % 0 lf 1010,1 hPa 0,0 l/m 2 min 0 min 602 W/m 18,8 km/h (3 Bft) 100,00 %
31.05.2016 17:12 20,1 C 20,6 C 19,4 C 72 % 0 lf 1010,2 hPa 0,0 l/m 2 min 0 min 600 W/m 12,6 km/h (3 Bft) 100,00 %
31.05.2016 17:14 20,1 C 20,6 C 19,4 C 73 % 0 lf 1010,1 hPa 0,0 l/m 2 min 0 min 594 W/m 8,4 km/h (2 Bft) 95,74 %
31.05.2016 17:16 20,0 C 20,6 C 19,4 C 73 % 0 lf 1010,2 hPa 0,0 l/m 2 min 0 min 592 W/m 12,6 km/h (3 Bft) 100,00 %
31.05.2016 17:18 20,0 C 20,0 C 19,4 C 73 % 0 lf 1010,2 hPa 0,0 l/m 2 min 0 min 584 W/m 18,8 km/h (3 Bft) 97,87 %
31.05.2016 17:20 19,9 C 20,0 C 19,4 C 73 % 0 lf 1010,2 hPa 0,0 l/m 2 min 0 min 581 W/m 14,6 km/h (3 Bft) 97,87 %
31.05.2016 17:22 19,9 C 20,0 C 19,4 C 74 % 0 lf 1010,2 hPa 0,0 l/m 2 min 0 min 577 W/m 12,6 km/h (3 Bft) 95,65 %
31.05.2016 17:24 19,9 C 20,0 C 18,9 C 74 % 0 lf 1010,2 hPa 0,0 l/m 2 min 0 min 572 W/m 14,6 km/h (3 Bft) 100,00 %
31.05.2016 17:26 19,9 C 20,0 C 18,9 C 73 % 0 lf 1010,3 hPa 0,0 l/m 2 min 0 min 566 W/m 10,5 km/h (2 Bft) 100,00 %
31.05.2016 17:28 19,8 C 20,0 C 18,9 C 74 % 0 lf 1010,3 hPa 0,0 l/m 2 min 0 min 560 W/m 10,5 km/h (2 Bft) 100,00 %
31.05.2016 17:30 19,8 C 20,0 C 18,9 C 74 % 0 lf 1010,3 hPa 0,0 l/m 2 min 0 min 554 W/m 12,6 km/h (3 Bft) 93,62 %
31.05.2016 17:32 19,8 C 20,0 C 18,9 C 73 % 0 lf 1010,3 hPa 0,0 l/m 2 min 0 min 553 W/m 8,4 km/h (2 Bft) 97,87 %
31.05.2016 17:34 19,8 C 20,0 C 18,9 C 74 % 0 lf 1010,3 hPa 0,0 l/m 2 min 0 min 548 W/m 12,6 km/h (3 Bft) 100,00 %
31.05.2016 17:36 19,8 C 20,0 C 18,9 C 74 % 0 lf 1010,4 hPa 0,0 l/m 2 min 0 min 553 W/m 14,6 km/h (3 Bft) 100,00 %
31.05.2016 17:38 19,8 C 20,0 C 18,9 C 74 % 0 lf 1010,3 hPa 0,0 l/m 2 min 0 min 561 W/m 10,5 km/h (2 Bft) 93,62 %
31.05.2016 17:40 19,8 C 20,0 C 18,9 C 74 % 0 lf 1010,3 hPa 0,0 l/m 2 min 0 min 562 W/m 10,5 km/h (2 Bft) 97,87 %
31.05.2016 17:42 19,8 C 20,0 C 18,9 C 74 % 0 lf 1010,4 hPa 0,0 l/m 2 min 0 min 550 W/m 10,5 km/h (2 Bft) 97,87 %
31.05.2016 17:44 19,8 C 20,0 C 18,9 C 74 % 0 lf 1010,3 hPa 0,0 l/m 2 min 0 min 556 W/m 10,5 km/h (2 Bft) 95,74 %
31.05.2016 17:46 19,8 C 20,0 C 18,9 C 74 % 0 lf 1010,3 hPa 0,0 l/m 2 min 0 min 556 W/m 6,3 km/h (2 Bft) 97,83 %
31.05.2016 17:48 19,8 C 20,0 C 18,9 C 74 % 0 lf 1010,3 hPa 0,0 l/m 2 min 0 min 563 W/m 8,4 km/h (2 Bft) 95,74 %
31.05.2016 17:50 19,8 C 20,0 C 18,9 C 74 % 0 lf 1010,3 hPa 0,0 l/m 2 min 0 min 571 W/m 4,2 km/h (1 Bft) 97,87 %
31.05.2016 17:52 19,8 C 20,0 C 18,9 C 74 % 0 lf 1010,3 hPa 0,0 l/m 2 min 0 min 586 W/m 10,5 km/h (2 Bft) 95,74 %
31.05.2016 17:54 19,8 C 20,0 C 18,9 C 74 % 0 lf 1010,3 hPa 0,0 l/m 2 min 0 min 592 W/m 6,3 km/h (2 Bft) 95,74 %
31.05.2016 17:56 19,8 C 20,0 C 18,9 C 74 % 0 lf 1010,3 hPa 0,0 l/m 2 min 0 min 607 W/m 8,4 km/h (2 Bft) 97,87 %
31.05.2016 17:58 19,8 C 20,6 C 18,9 C 75 % 0 lf 1010,4 hPa 0,0 l/m 2 min 0 min 611 W/m 6,3 km/h (2 Bft) 97,83 %
31.05.2016 18:00 19,8 C 20,6 C 18,9 C 75 % 0 lf 1010,4 hPa 0,0 l/m 2 min 0 min 611 W/m 8,4 km/h (2 Bft) 95,74 %
31.05.2016 18:02 19,8 C 20,6 C 19,4 C 75 % 0 lf 1010,4 hPa 0,0 l/m 2 min 0 min 610 W/m 8,4 km/h (2 Bft) 97,87 %
31.05.2016 18:04 19,8 C 20,6 C 19,4 C 75 % 0 lf 1010,4 hPa 0,0 l/m 2 min 0 min 622 W/m 14,6 km/h (3 Bft) 91,67 %
31.05.2016 18:06 19,8 C 20,6 C 20,0 C 75 % 0 lf 1010,4 hPa 0,0 l/m 2 min 0 min 641 W/m 8,4 km/h (2 Bft) 95,74 %
31.05.2016 18:08 19,8 C 21,1 C 20,0 C 75 % 0 lf 1010,4 hPa 0,0 l/m 2 min 0 min 637 W/m 10,5 km/h (2 Bft) 93,62 %
31.05.2016 18:10 19,8 C 21,1 C 20,0 C 75 % 0 lf 1010,4 hPa 0,0 l/m 2 min 0 min 643 W/m 10,5 km/h (2 Bft) 95,74 %
31.05.2016 18:12 19,8 C 21,1 C 20,0 C 75 % 0 lf 1010,4 hPa 0,0 l/m 2 min 0 min 643 W/m 12,6 km/h (3 Bft) 93,48 %
31.05.2016 18:14 19,8 C 21,1 C 20,0 C 74 % 0 lf 1010,4 hPa 0,0 l/m 2 min 0 min 646 W/m 8,4 km/h (2 Bft) 95,74 %
31.05.2016 18:16 19,9 C 21,1 C 20,0 C 74 % 0 lf 1010,4 hPa 0,0 l/m 2 min 0 min 650 W/m 14,6 km/h (3 Bft) 93,62 %
31.05.2016 18:18 19,9 C 21,1 C 20,6 C 75 % 0 lf 1010,4 hPa 0,0 l/m 2 min 0 min 641 W/m 8,4 km/h (2 Bft) 95,74 %
31.05.2016 18:20 19,9 C 21,1 C 20,6 C 75 % 0 lf 1010,4 hPa 0,0 l/m 2 min 0 min 630 W/m 8,4 km/h (2 Bft) 91,49 %
31.05.2016 18:22 19,9 C 21,1 C 20,6 C 75 % 0 lf 1010,5 hPa 0,0 l/m 2 min 0 min 629 W/m 8,4 km/h (2 Bft) 95,74 %
31.05.2016 18:24 19,9 C 21,1 C 20,6 C 75 % 0 lf 1010,5 hPa 0,0 l/m 2 min 0 min 639 W/m 14,6 km/h (3 Bft) 93,48 %
31.05.2016 18:26 19,9 C 21,1 C 20,0 C 74 % 0 lf 1010,5 hPa 0,0 l/m 2 min 0 min 650 W/m 18,8 km/h (3 Bft) 95,74 %
31.05.2016 18:28 19,9 C 21,1 C 20,0 C 72 % 0 lf 1010,5 hPa 0,0 l/m 2 min 0 min 656 W/m 14,6 km/h (3 Bft) 93,62 %
31.05.2016 18:30 20,0 C 20,6 C 20,0 C 72 % 0 lf 1010,5 hPa 0,0 l/m 2 min 0 min 654 W/m 14,6 km/h (3 Bft) 93,62 %
31.05.2016 18:32 20,0 C 20,6 C 20,0 C 72 % 0 lf 1010,5 hPa 0,0 l/m 2 min 0 min 647 W/m 16,7 km/h (3 Bft) 93,62 %
31.05.2016 18:34 20,0 C 20,6 C 20,0 C 72 % 0 lf 1010,6 hPa 0,0 l/m 2 min 0 min 641 W/m 14,6 km/h (3 Bft) 91,49 %
31.05.2016 18:36 20,0 C 21,1 C 20,0 C 72 % 0 lf 1010,6 hPa 0,0 l/m 2 min 0 min 638 W/m 10,5 km/h (2 Bft) 91,30 %
31.05.2016 18:38 20,0 C 20,6 C 20,0 C 72 % 0 lf 1010,5 hPa 0,0 l/m 2 min 0 min 630 W/m 16,7 km/h (3 Bft) 91,49 %
31.05.2016 18:40 20,1 C 21,1 C 20,0 C 72 % 0 lf 1010,5 hPa 0,0 l/m 2 min 0 min 631 W/m 12,6 km/h (3 Bft) 93,62 %
31.05.2016 18:42 20,1 C 21,1 C 20,0 C 73 % 0 lf 1010,6 hPa 0,0 l/m 2 min 0 min 642 W/m 8,4 km/h (2 Bft) 95,74 %
31.05.2016 18:44 20,1 C 21,1 C 20,0 C 73 % 0 lf 1010,6 hPa 0,0 l/m 2 min 0 min 650 W/m 10,5 km/h (2 Bft) 95,74 %
31.05.2016 18:46 20,1 C 21,1 C 20,0 C 73 % 0 lf 1010,7 hPa 0,0 l/m 2 min 0 min 650 W/m 14,6 km/h (3 Bft) 93,62 %
31.05.2016 18:48 20,1 C 21,1 C 20,0 C 73 % 0 lf 1010,6 hPa 0,0 l/m 2 min 0 min 647 W/m 18,8 km/h (3 Bft) 95,65 %
31.05.2016 18:50 20,1 C 21,1 C 20,0 C 72 % 0 lf 1010,7 hPa 0,0 l/m 2 min 0 min 655 W/m 18,8 km/h (3 Bft) 95,74 %
31.05.2016 18:52 20,1 C 21,1 C 20,0 C 72 % 0 lf 1010,6 hPa 0,0 l/m 2 min 0 min 653 W/m 14,6 km/h (3 Bft) 93,62 %
31.05.2016 18:54 20,2 C 21,1 C 20,6 C 72 % 0 lf 1010,7 hPa 0,0 l/m 2 min 0 min 652 W/m 4,2 km/h (1 Bft) 95,74 %
31.05.2016 18:56 20,2 C 21,1 C 20,6 C 73 % 0 lf 1010,6 hPa 0,0 l/m 2 min 0 min 642 W/m 10,5 km/h (2 Bft) 93,62 %
31.05.2016 18:58 20,2 C 21,1 C 20,6 C 73 % 0 lf 1010,7 hPa 0,0 l/m 2 min 0 min 642 W/m 8,4 km/h (2 Bft) 95,74 %
31.05.2016 19:00 20,2 C 21,1 C 20,6 C 73 % 0 lf 1010,7 hPa 0,0 l/m 2 min 0 min 651 W/m 10,5 km/h (2 Bft) 95,65 %
31.05.2016 19:02 20,2 C 21,1 C 20,6 C 73 % 0 lf 1010,8 hPa 0,0 l/m 2 min 0 min 650 W/m 14,6 km/h (3 Bft) 94,00 %
31.05.2016 19:04 20,3 C 21,1 C 20,6 C 73 % 0 lf 1010,8 hPa 0,0 l/m 2 min 0 min 642 W/m 10,5 km/h (2 Bft) 89,36 %
31.05.2016 19:06 20,3 C 21,1 C 20,6 C 73 % 0 lf 1010,8 hPa 0,0 l/m 2 min 0 min 649 W/m 10,5 km/h (2 Bft) 95,74 %
31.05.2016 19:08 20,3 C 20,6 C 20,6 C 72 % 0 lf 1010,8 hPa 0,0 l/m 2 min 0 min 636 W/m 10,5 km/h (2 Bft) 95,74 %
31.05.2016 19:10 20,3 C 20,6 C 20,6 C 72 % 0 lf 1010,8 hPa 0,0 l/m 2 min 0 min 630 W/m 6,3 km/h (2 Bft) 93,48 %
31.05.2016 19:12 20,3 C 21,1 C 20,0 C 72 % 0 lf 1010,8 hPa 0,0 l/m 2 min 0 min 623 W/m 8,4 km/h (2 Bft) 91,49 %
31.05.2016 19:14 20,3 C 21,1 C 20,0 C 73 % 0 lf 1010,8 hPa 0,0 l/m 2 min 0 min 618 W/m 6,3 km/h (2 Bft) 89,36 %
31.05.2016 19:16 20,3 C 21,1 C 20,0 C 73 % 0 lf 1010,8 hPa 0,0 l/m 2 min 0 min 608 W/m 10,5 km/h (2 Bft) 97,87 %
31.05.2016 19:18 20,3 C 20,6 C 20,0 C 73 % 0 lf 1010,8 hPa 0,0 l/m 2 min 0 min 609 W/m 8,4 km/h (2 Bft) 95,74 %
31.05.2016 19:20 20,3 C 20,6 C 20,0 C 73 % 0 lf 1010,9 hPa 0,0 l/m 2 min 0 min 606 W/m 8,4 km/h (2 Bft) 95,74 %
31.05.2016 19:22 20,3 C 20,6 C 20,0 C 73 % 0 lf 1010,9 hPa 0,0 l/m 2 min 0 min 599 W/m 12,6 km/h (3 Bft) 95,65 %
31.05.2016 19:24 20,3 C 20,6 C 20,0 C 73 % 0 lf 1010,9 hPa 0,0 l/m 2 min 0 min 602 W/m 6,3 km/h (2 Bft) 97,87 %
31.05.2016 19:26 20,3 C 20,6 C 20,0 C 73 % 0 lf 1010,9 hPa 0,0 l/m 2 min 0 min 599 W/m 8,4 km/h (2 Bft) 95,74 %
31.05.2016 19:28 20,3 C 20,6 C 20,0 C 73 % 0 lf 1010,9 hPa 0,0 l/m 2 min 0 min 592 W/m 6,3 km/h (2 Bft) 93,62 %
31.05.2016 19:30 20,3 C 20,6 C 19,4 C 73 % 0 lf 1010,9 hPa 0,0 l/m 2 min 0 min 594 W/m 6,3 km/h (2 Bft) 95,74 %
31.05.2016 19:32 20,3 C 20,6 C 19,4 C 73 % 0 lf 1010,9 hPa 0,0 l/m 2 min 0 min 591 W/m 4,2 km/h (1 Bft) 97,87 %
31.05.2016 19:34 20,3 C 20,6 C 19,4 C 73 % 0 lf 1010,9 hPa 0,0 l/m 2 min 0 min 589 W/m 6,3 km/h (2 Bft) 95,65 %
31.05.2016 19:36 20,3 C 20,6 C 19,4 C 73 % 0 lf 1010,9 hPa 0,0 l/m 2 min 0 min 590 W/m 6,3 km/h (2 Bft) 95,74 %
31.05.2016 19:38 20,2 C 20,6 C 19,4 C 73 % 0 lf 1010,9 hPa 0,0 l/m 2 min 0 min 580 W/m 10,5 km/h (2 Bft) 97,87 %
31.05.2016 19:40 20,2 C 20,6 C 19,4 C 73 % 0 lf 1011,0 hPa 0,0 l/m 2 min 0 min 593 W/m 8,4 km/h (2 Bft) 96,23 %
31.05.2016 19:42 20,2 C 20,6 C 19,4 C 73 % 0 lf 1011,0 hPa 0,0 l/m 2 min 0 min 586 W/m 8,4 km/h (2 Bft) 97,87 %
31.05.2016 19:44 20,2 C 20,6 C 19,4 C 72 % 0 lf 1011,0 hPa 0,0 l/m 2 min 0 min 592 W/m 6,3 km/h (2 Bft) 97,83 %
31.05.2016 19:46 20,2 C 20,6 C 19,4 C 72 % 0 lf 1011,0 hPa 0,0 l/m 2 min 0 min 587 W/m 8,4 km/h (2 Bft) 97,87 %
31.05.2016 19:48 20,2 C 20,6 C 19,4 C 73 % 0 lf 1011,1 hPa 0,0 l/m 2 min 0 min 585 W/m 8,4 km/h (2 Bft) 100,00 %
31.05.2016 19:49 20,2 C 20,6 C 19,4 C 73 % 0 lf 1011,1 hPa 0,0 l/m 1 min 0 min 585 W/m 2,1 km/h (1 Bft) 100,00 %
31.05.2016 19:50 20,2 C 20,6 C 19,4 C 73 % 0 lf 1011,0 hPa 0,0 l/m 1 min 0 min 566 W/m 6,3 km/h (2 Bft) 100,00 %
31.05.2016 19:52 20,2 C 20,6 C 19,4 C 73 % 0 lf 1011,1 hPa 0,0 l/m 2 min 0 min 558 W/m 6,3 km/h (2 Bft) 96,00 %
31.05.2016 19:54 20,2 C 20,6 C 18,9 C 73 % 0 lf 1011,2 hPa 0,0 l/m 2 min 0 min 558 W/m 10,5 km/h (2 Bft) 97,87 %
31.05.2016 19:56 20,2 C 20,0 C 18,9 C 73 % 0 lf 1011,2 hPa 0,0 l/m 2 min 0 min 559 W/m 10,5 km/h (2 Bft) 100,00 %
31.05.2016 19:58 20,2 C 20,0 C 18,9 C 73 % 0 lf 1011,2 hPa 0,0 l/m 2 min 0 min 563 W/m 10,5 km/h (2 Bft) 97,87 %
31.05.2016 20:00 20,1 C 20,0 C 18,9 C 74 % 0 lf 1011,3 hPa 0,0 l/m 2 min 0 min 556 W/m 10,5 km/h (2 Bft) 95,74 %
31.05.2016 20:02 20,1 C 20,0 C 18,9 C 74 % 0 lf 1011,3 hPa 0,0 l/m 2 min 0 min 552 W/m 8,4 km/h (2 Bft) 95,65 %
31.05.2016 20:04 20,1 C 20,0 C 18,9 C 74 % 0 lf 1011,3 hPa 0,0 l/m 2 min 0 min 551 W/m 8,4 km/h (2 Bft) 97,87 %
31.05.2016 20:06 20,1 C 20,0 C 18,9 C 74 % 0 lf 1011,4 hPa 0,0 l/m 2 min 0 min 560 W/m 8,4 km/h (2 Bft) 100,00 %
31.05.2016 20:08 20,1 C 20,0 C 18,9 C 74 % 0 lf 1011,4 hPa 0,0 l/m 2 min 0 min 562 W/m 12,6 km/h (3 Bft) 100,00 %
31.05.2016 20:10 20,1 C 20,0 C 18,3 C 74 % 0 lf 1011,5 hPa 0,0 l/m 2 min 0 min 564 W/m 10,5 km/h (2 Bft) 100,00 %
31.05.2016 20:12 20,0 C 20,0 C 18,3 C 74 % 0 lf 1011,5 hPa 0,0 l/m 2 min 0 min 560 W/m 8,4 km/h (2 Bft) 97,87 %
31.05.2016 20:14 20,0 C 20,0 C 18,3 C 75 % 0 lf 1011,3 hPa 0,0 l/m 2 min 0 min 564 W/m 10,5 km/h (2 Bft) 95,65 %
31.05.2016 20:16 20,0 C 20,0 C 18,3 C 75 % 0 lf 1011,4 hPa 0,0 l/m 2 min 0 min 568 W/m 6,3 km/h (2 Bft) 97,87 %
31.05.2016 20:18 19,9 C 20,0 C 18,3 C 75 % 0 lf 1011,6 hPa 0,0 l/m 2 min 0 min 569 W/m 4,2 km/h (1 Bft) 95,74 %
31.05.2016 20:19 19,9 C 20,0 C 18,3 C 75 % 0 lf 1011,5 hPa 0,0 l/m 1 min 0 min 563 W/m 6,3 km/h (2 Bft) 86,96 %
31.05.2016 20:20 19,9 C 20,0 C 18,3 C 75 % 0 lf 1011,5 hPa 0,0 l/m 0 min 0 min 56 W/m 6,3 km/h (2 Bft) 100,00 %
31.05.2016 20:22 19,9 C 20,0 C 18,3 C 75 % 0 lf 1011,6 hPa 0,0 l/m 0 min 0 min 17 W/m 6,3 km/h (2 Bft) 92,00 %
31.05.2016 20:24 19,9 C 20,0 C 18,3 C 75 % 0 lf 1011,6 hPa 0,0 l/m 0 min 0 min 0 W/m 4,2 km/h (1 Bft) 96,13 %
31.05.2016 20:25 19,9 C 20,0 C 18,3 C 75 % 0 lf 1011,6 hPa 0,0 l/m 0 min 0 min 0 W/m 6,3 km/h (2 Bft) 100,00 %
31.05.2016 20:28 19,9 C 20,0 C 18,3 C 75 % 0 lf 1011,6 hPa 0,0 l/m 0 min 0 min 0 W/m 10,5 km/h (2 Bft) 98,33 %
31.05.2016 20:30 19,9 C 20,0 C 18,3 C 75 % 0 lf 1011,6 hPa 0,0 l/m 0 min 0 min 44 W/m 8,4 km/h (2 Bft) 95,74 %
31.05.2016 20:32 19,9 C 20,0 C 18,3 C 75 % 0 lf 1011,6 hPa 0,0 l/m 0 min 0 min 56 W/m 10,5 km/h (2 Bft) 97,87 %
31.05.2016 20:34 19,8 C 19,4 C 18,3 C 75 % 0 lf 1011,6 hPa 0,0 l/m 0 min 0 min 56 W/m 6,3 km/h (2 Bft) 95,65 %
31.05.2016 20:36 19,8 C 19,4 C 18,3 C 74 % 0 lf 1011,6 hPa 0,0 l/m 0 min 0 min 56 W/m 12,6 km/h (3 Bft) 95,74 %
31.05.2016 20:38 19,8 C 19,4 C 18,3 C 74 % 0 lf 1011,6 hPa 0,0 l/m 0 min 0 min 54 W/m 6,3 km/h (2 Bft) 95,74 %
31.05.2016 20:40 19,8 C 19,4 C 18,3 C 74 % 0 lf 1011,7 hPa 0,0 l/m 0 min 0 min 54 W/m 8,4 km/h (2 Bft) 97,87 %
31.05.2016 20:42 19,7 C 19,4 C 18,3 C 74 % 0 lf 1011,6 hPa 0,0 l/m 0 min 0 min 54 W/m 12,6 km/h (3 Bft) 97,87 %
31.05.2016 20:44 19,7 C 19,4 C 18,3 C 74 % 0 lf 1011,6 hPa 0,0 l/m 0 min 0 min 52 W/m 8,4 km/h (2 Bft) 100,00 %
31.05.2016 20:46 19,7 C 19,4 C 17,8 C 74 % 0 lf 1011,6 hPa 0,0 l/m 0 min 0 min 50 W/m 8,4 km/h (2 Bft) 95,65 %
31.05.2016 20:48 19,7 C 19,4 C 17,8 C 75 % 0 lf 1011,6 hPa 0,0 l/m 0 min 0 min 47 W/m 6,3 km/h (2 Bft) 97,87 %
31.05.2016 20:50 19,7 C 19,4 C 17,8 C 75 % 0 lf 1011,7 hPa 0,0 l/m 0 min 0 min 47 W/m 8,4 km/h (2 Bft) 97,87 %
31.05.2016 20:52 19,7 C 19,4 C 17,8 C 74 % 0 lf 1011,7 hPa 0,0 l/m 2 min 0 min 46 W/m 10,5 km/h (2 Bft) 100,00 %
31.05.2016 20:54 19,6 C 19,4 C 17,8 C 74 % 0 lf 1011,6 hPa 0,0 l/m 2 min 0 min 45 W/m 6,3 km/h (2 Bft) 95,74 %
31.05.2016 20:56 19,6 C 19,4 C 17,8 C 74 % 0 lf 1011,7 hPa 0,0 l/m 2 min 0 min 44 W/m 8,4 km/h (2 Bft) 97,87 %
31.05.2016 20:58 19,6 C 19,4 C 17,8 C 74 % 0 lf 1011,8 hPa 0,0 l/m 2 min 0 min 43 W/m 8,4 km/h (2 Bft) 100,00 %
31.05.2016 21:00 19,6 C 19,4 C 17,8 C 74 % 0 lf 1011,8 hPa 0,0 l/m 2 min 0 min 41 W/m 6,3 km/h (2 Bft) 97,62 %
31.05.2016 21:02 19,6 C 19,4 C 17,2 C 74 % 0 lf 1011,9 hPa 0,0 l/m 2 min 0 min 39 W/m 4,2 km/h (1 Bft) 100,00 %
31.05.2016 21:04 19,6 C 19,4 C 17,2 C 74 % 0 lf 1011,9 hPa 0,0 l/m 2 min 0 min 35 W/m 6,3 km/h (2 Bft) 94,00 %
31.05.2016 21:06 19,6 C 19,4 C 17,2 C 74 % 0 lf 1011,9 hPa 0,0 l/m 2 min 0 min 33 W/m 6,3 km/h (2 Bft) 95,74 %
31.05.2016 21:08 19,5 C 19,4 C 17,2 C 74 % 0 lf 1011,9 hPa 0,0 l/m 2 min 0 min 32 W/m 8,4 km/h (2 Bft) 97,87 %
31.05.2016 21:10 19,5 C 18,9 C 17,2 C 74 % 0 lf 1011,9 hPa 0,0 l/m 2 min 0 min 29 W/m 6,3 km/h (2 Bft) 93,62 %
31.05.2016 21:12 19,4 C 18,9 C 17,2 C 74 % 0 lf 1012,0 hPa 0,0 l/m 2 min 0 min 27 W/m 6,3 km/h (2 Bft) 93,48 %
31.05.2016 21:14 19,4 C 18,9 C 17,2 C 74 % 0 lf 1011,9 hPa 0,0 l/m 2 min 0 min 25 W/m 6,3 km/h (2 Bft) 93,62 %
31.05.2016 21:16 19,4 C 18,9 C 17,2 C 74 % 0 lf 1011,9 hPa 0,0 l/m 2 min 0 min 23 W/m 6,3 km/h (2 Bft) 91,49 %
31.05.2016 21:18 19,4 C 18,9 C 16,7 C 74 % 0 lf 1011,9 hPa 0,0 l/m 2 min 0 min 20 W/m 6,3 km/h (2 Bft) 95,74 %
31.05.2016 21:20 19,3 C 18,9 C 16,7 C 74 % 0 lf 1011,9 hPa 0,0 l/m 0 min 0 min 18 W/m 6,3 km/h (2 Bft) 95,74 %
31.05.2016 21:22 19,3 C 18,9 C 16,7 C 74 % 0 lf 1011,9 hPa 0,0 l/m 0 min 0 min 16 W/m 6,3 km/h (2 Bft) 91,49 %
31.05.2016 21:24 19,3 C 18,3 C 16,7 C 74 % 0 lf 1011,9 hPa 0,0 l/m 0 min 0 min 14 W/m 2,1 km/h (1 Bft) 95,65 %
31.05.2016 21:26 19,3 C 18,3 C 16,1 C 74 % 0 lf 1012,0 hPa 0,0 l/m 0 min 0 min 13 W/m 4,2 km/h (1 Bft) 95,74 %
31.05.2016 21:28 19,3 C 18,3 C 16,1 C 75 % 0 lf 1012,0 hPa 0,0 l/m 0 min 0 min 12 W/m 4,2 km/h (1 Bft) 95,74 %
31.05.2016 21:30 19,3 C 18,3 C 16,1 C 75 % 0 lf 1012,0 hPa 0,0 l/m 0 min 0 min 11 W/m 4,2 km/h (1 Bft) 95,74 %
31.05.2016 21:32 19,2 C 18,3 C 16,1 C 75 % 0 lf 1012,0 hPa 0,0 l/m 0 min 0 min 9 W/m 0,0 km/h (0 Bft) 95,74 %
31.05.2016 21:34 19,2 C 17,8 C 16,1 C 75 % 0 lf 1012,1 hPa 0,0 l/m 0 min 0 min 9 W/m 2,1 km/h (1 Bft) 93,62 %
31.05.2016 21:36 19,2 C 17,8 C 15,6 C 76 % 0 lf 1012,1 hPa 0,0 l/m 0 min 0 min 7 W/m 2,1 km/h (1 Bft) 95,65 %
31.05.2016 21:38 19,2 C 17,8 C 15,6 C 76 % 0 lf 1012,1 hPa 0,0 l/m 0 min 0 min 7 W/m 2,1 km/h (1 Bft) 95,74 %
31.05.2016 21:40 19,1 C 17,8 C 15,6 C 77 % 0 lf 1012,1 hPa 0,0 l/m 0 min 0 min 7 W/m 2,1 km/h (1 Bft) 93,62 %
31.05.2016 21:42 19,1 C 17,2 C 15,6 C 77 % 0 lf 1012,2 hPa 0,0 l/m 0 min 0 min 7 W/m 0,0 km/h (0 Bft) 93,62 %
31.05.2016 21:44 19,1 C 17,2 C 15,6 C 77 % 0 lf 1012,2 hPa 0,0 l/m 0 min 0 min 7 W/m 0,0 km/h (0 Bft) 93,62 %
31.05.2016 21:46 19,0 C 17,2 C 15,0 C 77 % 0 lf 1012,2 hPa 0,0 l/m 0 min 0 min 6 W/m 0,0 km/h (0 Bft) 85,11 %
31.05.2016 21:48 18,9 C 17,2 C 15,0 C 77 % 0 lf 1012,2 hPa 0,0 l/m 0 min 0 min 5 W/m 0,0 km/h (0 Bft) 95,65 %
31.05.2016 21:50 18,9 C 16,7 C 15,0 C 77 % 0 lf 1012,2 hPa 0,0 l/m 0 min 0 min 5 W/m 0,0 km/h (0 Bft) 93,62 %
31.05.2016 21:52 18,9 C 16,7 C 15,0 C 78 % 0 lf 1012,3 hPa 0,0 l/m 0 min 0 min 7 W/m 0,0 km/h (0 Bft) 91,49 %
31.05.2016 21:54 18,8 C 16,7 C 15,0 C 78 % 0 lf 1012,3 hPa 0,0 l/m 0 min 0 min 6 W/m 0,0 km/h (0 Bft) 93,62 %
31.05.2016 21:56 18,7 C 16,7 C 15,0 C 78 % 0 lf 1012,4 hPa 0,0 l/m 0 min 0 min 5 W/m 0,0 km/h (0 Bft) 93,62 %
31.05.2016 21:58 18,7 C 16,7 C 15,0 C 78 % 0 lf 1012,4 hPa 0,0 l/m 0 min 0 min 5 W/m 0,0 km/h (0 Bft) 93,48 %
31.05.2016 22:00 18,7 C 16,7 C 14,4 C 78 % 0 lf 1012,4 hPa 0,0 l/m 0 min 0 min 5 W/m 0,0 km/h (0 Bft) 92,00 %
31.05.2016 22:02 18,6 C 16,7 C 14,4 C 78 % 0 lf 1012,4 hPa 0,0 l/m 0 min 0 min 2 W/m 0,0 km/h (0 Bft) 90,24 %
31.05.2016 22:04 18,6 C 16,7 C 14,4 C 79 % 0 lf 1012,4 hPa 0,0 l/m 0 min 0 min 3 W/m 0,0 km/h (0 Bft) 96,00 %
31.05.2016 22:06 18,5 C 16,1 C 14,4 C 79 % 0 lf 1012,4 hPa 0,0 l/m 0 min 0 min 0 W/m 0,0 km/h (0 Bft) 93,62 %
31.05.2016 22:08 18,4 C 16,1 C 14,4 C 79 % 0 lf 1012,5 hPa 0,0 l/m 0 min 0 min 0 W/m 0,0 km/h (0 Bft) 95,74 %
31.05.2016 22:10 18,4 C 16,1 C 14,4 C 80 % 0 lf 1012,5 hPa 0,0 l/m 0 min 0 min 0 W/m 0,0 km/h (0 Bft) 93,48 %
31.05.2016 22:12 18,3 C 16,1 C 14,4 C 80 % 0 lf 1012,5 hPa 0,0 l/m 0 min 0 min 0 W/m 0,0 km/h (0 Bft) 95,74 %
31.05.2016 22:14 18,2 C 16,1 C 14,4 C 80 % 0 lf 1012,5 hPa 0,0 l/m 0 min 0 min 0 W/m 0,0 km/h (0 Bft) 89,36 %
31.05.2016 22:16 18,2 C 16,1 C 14,4 C 80 % 0 lf 1012,6 hPa 0,0 l/m 0 min 0 min 0 W/m 0,0 km/h (0 Bft) 95,74 %
31.05.2016 22:18 18,2 C 16,1 C 14,4 C 81 % 0 lf 1012,5 hPa 0,0 l/m 0 min 0 min 0 W/m 0,0 km/h (0 Bft) 93,62 %
31.05.2016 22:20 18,1 C 16,1 C 14,4 C 81 % 0 lf 1012,6 hPa 0,0 l/m 0 min 0 min 0 W/m 0,0 km/h (0 Bft) 91,49 %
31.05.2016 22:22 18,1 C 16,1 C 14,4 C 81 % 0 lf 1012,7 hPa 0,0 l/m 0 min 0 min 0 W/m 0,0 km/h (0 Bft) 93,48 %
31.05.2016 22:24 18,0 C 16,1 C 14,4 C 81 % 0 lf 1012,6 hPa 0,0 l/m 0 min 0 min 0 W/m 0,0 km/h (0 Bft) 93,62 %
31.05.2016 22:26 17,9 C 16,1 C 14,4 C 82 % 0 lf 1012,6 hPa 0,0 l/m 0 min 0 min 0 W/m 0,0 km/h (0 Bft) 95,74 %
31.05.2016 22:28 17,9 C 16,1 C 14,4 C 82 % 0 lf 1012,7 hPa 0,0 l/m 0 min 0 min 0 W/m 0,0 km/h (0 Bft) 95,74 %
31.05.2016 22:30 17,8 C 16,1 C 14,4 C 82 % 0 lf 1012,6 hPa 0,0 l/m 0 min 0 min 0 W/m 0,0 km/h (0 Bft) 95,74 %
31.05.2016 22:32 17,8 C 15,6 C 14,4 C 82 % 0 lf 1012,6 hPa 0,0 l/m 0 min 0 min 0 W/m 0,0 km/h (0 Bft) 93,62 %
31.05.2016 22:34 17,7 C 15,6 C 14,4 C 83 % 0 lf 1012,6 hPa 0,0 l/m 0 min 0 min 0 W/m 0,0 km/h (0 Bft) 93,48 %
31.05.2016 22:36 17,7 C 15,6 C 14,4 C 83 % 0 lf 1012,6 hPa 0,0 l/m 0 min 0 min 0 W/m 0,0 km/h (0 Bft) 89,36 %
31.05.2016 22:38 17,6 C 15,6 C 13,9 C 83 % 0 lf 1012,6 hPa 0,0 l/m 0 min 0 min 0 W/m 0,0 km/h (0 Bft) 95,74 %
31.05.2016 22:40 17,6 C 15,6 C 13,9 C 83 % 0 lf 1012,6 hPa 0,0 l/m 0 min 0 min 0 W/m 2,1 km/h (1 Bft) 95,74 %
31.05.2016 22:42 17,6 C 15,6 C 13,9 C 83 % 0 lf 1012,7 hPa 0,0 l/m 0 min 0 min 0 W/m 4,2 km/h (1 Bft) 93,62 %
31.05.2016 22:44 17,5 C 15,6 C 13,9 C 84 % 0 lf 1012,7 hPa 0,0 l/m 0 min 0 min 0 W/m 4,2 km/h (1 Bft) 97,87 %
31.05.2016 22:46 17,4 C 15,6 C 13,9 C 84 % 0 lf 1012,7 hPa 0,0 l/m 0 min 0 min 0 W/m 2,1 km/h (1 Bft) 100,00 %
31.05.2016 22:48 17,4 C 15,6 C 13,9 C 84 % 0 lf 1012,7 hPa 0,0 l/m 0 min 0 min 0 W/m 0,0 km/h (0 Bft) 100,00 %
31.05.2016 22:50 17,3 C 15,6 C 13,9 C 84 % 0 lf 1012,7 hPa 0,0 l/m 0 min 0 min 0 W/m 0,0 km/h (0 Bft) 93,62 %
31.05.2016 22:52 17,3 C 15,6 C 13,9 C 84 % 0 lf 1012,7 hPa 0,0 l/m 0 min 0 min 0 W/m 0,0 km/h (0 Bft) 100,00 %
31.05.2016 22:54 17,2 C 15,6 C 13,9 C 84 % 0 lf 1012,7 hPa 0,0 l/m 0 min 0 min 0 W/m 0,0 km/h (0 Bft) 95,74 %
31.05.2016 22:56 17,2 C 15,6 C 13,9 C 84 % 0 lf 1012,7 hPa 0,0 l/m 0 min 0 min 0 W/m 0,0 km/h (0 Bft) 97,87 %
31.05.2016 22:58 17,2 C 15,6 C 13,9 C 84 % 0 lf 1012,7 hPa 0,0 l/m 0 min 0 min 0 W/m 0,0 km/h (0 Bft) 93,48 %
31.05.2016 23:00 17,1 C 15,6 C 13,9 C 84 % 0 lf 1012,8 hPa 0,0 l/m 0 min 0 min 0 W/m 0,0 km/h (0 Bft) 98,00 %
31.05.2016 23:02 17,1 C 15,0 C 13,9 C 84 % 0 lf 1012,8 hPa 0,0 l/m 0 min 0 min 0 W/m 0,0 km/h (0 Bft) 97,56 %
31.05.2016 23:04 17,0 C 15,0 C 13,9 C 85 % 0 lf 1012,9 hPa 0,0 l/m 0 min 0 min 0 W/m 0,0 km/h (0 Bft) 98,00 %
31.05.2016 23:06 16,9 C 15,0 C 13,9 C 85 % 0 lf 1012,9 hPa 0,0 l/m 0 min 0 min 0 W/m 0,0 km/h (0 Bft) 100,00 %
31.05.2016 23:08 16,9 C 15,0 C 13,9 C 85 % 0 lf 1012,8 hPa 0,0 l/m 0 min 0 min 0 W/m 0,0 km/h (0 Bft) 100,00 %
31.05.2016 23:10 16,9 C 15,0 C 13,9 C 85 % 0 lf 1012,8 hPa 0,0 l/m 0 min 0 min 0 W/m 0,0 km/h (0 Bft) 100,00 %
31.05.2016 23:12 16,8 C 15,0 C 13,9 C 85 % 0 lf 1012,9 hPa 0,0 l/m 0 min 0 min 0 W/m 0,0 km/h (0 Bft) 97,87 %
31.05.2016 23:14 16,8 C 15,0 C 13,9 C 85 % 0 lf 1012,9 hPa 0,0 l/m 0 min 0 min 0 W/m 0,0 km/h (0 Bft) 100,00 %
31.05.2016 23:16 16,8 C 15,0 C 13,9 C 86 % 0 lf 1013,0 hPa 0,0 l/m 0 min 0 min 0 W/m 0,0 km/h (0 Bft) 97,87 %
31.05.2016 23:18 16,7 C 15,0 C 13,9 C 86 % 0 lf 1013,0 hPa 0,0 l/m 0 min 0 min 0 W/m 0,0 km/h (0 Bft) 100,00 %
31.05.2016 23:20 16,7 C 15,0 C 13,9 C 86 % 0 lf 1013,1 hPa 0,0 l/m 0 min 0 min 0 W/m 0,0 km/h (0 Bft) 100,00 %
31.05.2016 23:22 16,7 C 15,0 C 13,9 C 86 % 0 lf 1013,1 hPa 0,0 l/m 0 min 0 min 0 W/m 0,0 km/h (0 Bft) 97,83 %
31.05.2016 23:24 16,6 C 15,6 C 13,9 C 86 % 0 lf 1013,1 hPa 0,0 l/m 0 min 0 min 0 W/m 0,0 km/h (0 Bft) 100,00 %
31.05.2016 23:26 16,6 C 15,0 C 13,9 C 86 % 0 lf 1013,1 hPa 0,0 l/m 0 min 0 min 0 W/m 0,0 km/h (0 Bft) 91,49 %
31.05.2016 23:28 16,6 C 15,0 C 13,9 C 86 % 0 lf 1013,1 hPa 0,0 l/m 0 min 0 min 0 W/m 0,0 km/h (0 Bft) 100,00 %
31.05.2016 23:30 16,6 C 15,6 C 14,4 C 86 % 0 lf 1013,2 hPa 0,0 l/m 0 min 0 min 0 W/m 0,0 km/h (0 Bft) 100,00 %
31.05.2016 23:32 16,5 C 15,6 C 14,4 C 87 % 0 lf 1013,1 hPa 0,0 l/m 0 min 0 min 0 W/m 0,0 km/h (0 Bft) 100,00 %
31.05.2016 23:34 16,5 C 15,6 C 14,4 C 87 % 0 lf 1013,1 hPa 0,0 l/m 0 min 0 min 0 W/m 0,0 km/h (0 Bft) 97,87 %
31.05.2016 23:36 16,4 C 15,6 C 14,4 C 87 % 0 lf 1013,1 hPa 0,0 l/m 0 min 0 min 0 W/m 0,0 km/h (0 Bft) 100,00 %
31.05.2016 23:38 16,4 C 15,6 C 14,4 C 87 % 0 lf 1013,2 hPa 0,0 l/m 0 min 0 min 0 W/m 0,0 km/h (0 Bft) 100,00 %
31.05.2016 23:40 16,4 C 15,6 C 14,4 C 87 % 0 lf 1013,2 hPa 0,0 l/m 0 min 0 min 0 W/m 0,0 km/h (0 Bft) 97,87 %
31.05.2016 23:42 16,4 C 15,6 C 14,4 C 87 % 0 lf 1013,1 hPa 0,0 l/m 0 min 0 min 0 W/m 0,0 km/h (0 Bft) 100,00 %
31.05.2016 23:44 16,4 C 15,6 C 14,4 C 88 % 0 lf 1013,2 hPa 0,0 l/m 0 min 0 min 0 W/m 0,0 km/h (0 Bft) 100,00 %
31.05.2016 23:46 16,3 C 15,6 C 14,4 C 87 % 0 lf 1013,2 hPa 0,0 l/m 0 min 0 min 0 W/m 0,0 km/h (0 Bft) 100,00 %
31.05.2016 23:48 16,3 C 15,6 C 14,4 C 88 % 0 lf 1013,2 hPa 0,0 l/m 0 min 0 min 0 W/m 0,0 km/h (0 Bft) 97,87 %
31.05.2016 23:50 16,3 C 15,6 C 14,4 C 88 % 0 lf 1013,2 hPa 0,0 l/m 0 min 0 min 0 W/m 0,0 km/h (0 Bft) 95,74 %
31.05.2016 23:52 16,3 C 15,6 C 14,4 C 88 % 0 lf 1013,2 hPa 0,0 l/m 0 min 0 min 0 W/m 0,0 km/h (0 Bft) 100,00 %
31.05.2016 23:54 16,3 C 15,6 C 13,9 C 88 % 0 lf 1013,2 hPa 0,0 l/m 0 min 0 min 0 W/m 0,0 km/h (0 Bft) 100,00 %
31.05.2016 23:56 16,3 C 15,6 C 13,9 C 88 % 0 lf 1013,2 hPa 0,0 l/m 0 min 0 min 0 W/m 0,0 km/h (0 Bft) 97,83 %
31.05.2016 23:58 16,3 C 15,6 C 13,9 C 88 % 0 lf 1013,2 hPa 0,0 l/m 0 min 0 min 0 W/m 0,0 km/h (0 Bft) 97,87 %
_ Min-Zeit 05:42 23:02 01:06 15:00 02:52 00:00 - - - - 21:32 00:02
Minimum _ 15,4 C 15,0 C 13,9 C 65 % 0 lf 1002,4 hPa - - - - 0,0 km/h (0 Bft) 12,50 %
_ Max-Zeit 16:06 14:54 16:04 00:06 00:00 23:30 00:24 07:00 00:00 16:06 08:18 01:14
Maximum _ 21,7 C 27,8 C 27,8 C 97 % 15 lf 1013,2 hPa 0,2 l/m 2 min 0 min 1071 W/m 37,7 km/h
S-SO (5 Bft)
100,00 %
Durchschnitt _ 18,2 C 19,0 C 17,8 C 81 % 2 lf 1007,8 hPa #0,2 l/m #11:15 h #0 min. 421 W/m 16,8 km/h (3 Bft) 95,96 %
© 2016 W. Hausmann